     2              OBSERVATION DATA    GPS                 RINEX VERSION / TYPE
teqc 2002Apr3 20041109 01:33:02UTC                          PGM / RUN BY / DATE
                                                            COMMENT
L2: 1 -> 1; 5 -> 5; 60 -> 9                                 COMMENT
L2: 1 -> 1; 5 -> 5; 60 -> 9                                 COMMENT
L2: 1 -> 1; 5 -> 5; 60 -> 9                                 COMMENT
L2: 1 -> 1; 5 -> 5; 60 -> 9                                 COMMENT
L2: 1 -> 1; 5 -> 5; 60 -> 9                                 COMMENT
Original Marker Name: 0467                                  COMMENT
Campaign Name: CSRC/Caltrans post-San Simeon                COMMENT
4-Character Station Name: H315                              COMMENT
6-Character Antenna Code: TRZEPH                            COMMENT
Vertical Measurement Point: BPA                             COMMENT
Vertical Offset to Rinex Ref. Point: 0.0000                 COMMENT
Radial Measurement Point: RRP                               COMMENT
Radial Offset to Rinex Ref. Point: 0.0000                   COMMENT
Antenna Height from Field Measurement: 2.0000 m             COMMENT
Original XYZ: -2688795.2200 -4437556.4650 3696875.3232      COMMENT
New XYZ position is based on association with SCEC monument COMMENT
E1F0L6S2+0011. Position of that monument is believed to be  COMMENT
valid to within 1 m horizontally; vertical accuracy         COMMENT
should be no worse than 3-times this value.                 COMMENT
                                                            COMMENT
Revised Rinex header created by UCSD GPS archive for        COMMENT
GSAC on 11-Feb-2005 (2005:042) 22:01:45 GMT                 COMMENT
For assistance contact dagnew@ucsd.edu                      COMMENT
or anderson@python.ucsd.edu                                 COMMENT
                                                            COMMENT
H1315                                                       MARKER NAME
0467                                                        MARKER NUMBER
L. Scott CALIF DEPT TRANSPORTATION DISTRICT 5               OBSERVER / AGENCY
0440100467 TRIMBLE 5700 NP 2.01 / SP 0.00                   REC # / TYPE / VERS
12234994 TRM41249.00                                        ANT # / TYPE
 -2688796.0000 -4437554.0000  3696874.0000                  APPROX POSITION XYZ
        2.0000        0.0000        0.0000                  ANTENNA: DELTA H/E/N
     1     1     0                                          WAVELENGTH FACT L1/2
     7    C1    L1    L2    P1    P2    S1    S2            # / TYPES OF OBSERV
     0                                                      INTERVAL
  2004     6    30    17    55   45.000000                  TIME OF FIRST OBS
  2004     6    30    18    45   30.000000                  TIME OF LAST OBS
                                                            END OF HEADER
 04  6 30 17 55 45.0000000  0  8G 3G 9G14G15G18G19G21G22
  21752551.3474      40668.66049     23835.40247                  21752549.8514
        49.7504         37.0004
  23481198.7684     -22689.73049    -20303.80147                  23481198.4594
        37.0004         26.0004
  20683012.8474    -172812.02349   -125161.05948                  20683009.9274
        50.0004         41.2504
  20025603.4254     -21508.71949    -19241.77048                  20025601.2354
        49.7504         42.2504
  22215785.4514     134404.27349     88206.89547                  22215782.4324
        48.2504         33.7504
  22729872.8014    -178466.71949   -127758.84047                  22729869.2384
        43.7504         34.0004
  22554625.8814     182800.49249    121682.03147                  22554623.0294
        46.7504         29.5004
  20809067.7794      30090.46949     16427.15648                  20809063.2974
        52.0004         41.7504
 04  6 30 17 56  0.0000000  0  8G 3G 9G14G15G18G19G21G22
  21753991.3964      48237.78949     29733.41447                  21753989.7874
        49.0004         36.5004
  23480398.4704     -26896.49649    -23581.82047                  23480397.9584
        37.5004         26.2504
  20676918.9054    -204834.54749   -150113.67248                  20676916.1144
        51.0004         41.5004
  20024834.8724     -25547.01649    -22388.50048                  20024832.5444
        50.2504         42.7504
  22220468.5644     159018.06649    107386.46147                  22220465.9054
        48.5004         34.2504
  22723578.4174    -211547.28549   -153535.89847                  22723574.2634
        46.5004         34.0004
  22561046.3324     216539.75449    147972.33647                  22561043.4934
        46.0004         28.2504
  20810086.0764      35439.62549     20595.32848                  20810081.0674
        51.2504         41.2504
 04  6 30 17 56 15.0000000  0  8G 3G 9G14G15G18G19G21G22
  21755444.8384      55874.82049     35684.33647                  21755443.7084
        50.7504         37.2504
  23479613.9384     -31016.55149    -26792.24246                  23479613.8124
        38.0004         25.2504
  20670837.7154    -236791.62949   -175015.28548                  20670834.8164
        51.0004         41.5004
  20024075.0724     -29538.57049    -25498.80548                  20024073.1394
        50.7504         42.7504
  22225145.7874     183594.53549    126536.92647                  22225142.4524
        48.7504         34.0004
  22717294.9064    -244565.06649   -179264.03947                  22717291.0714
        46.2504         34.0004
  22567468.9744     250289.59849    174270.88347                  22567465.8294
        46.5004         29.0004
  20811100.9174      40775.26649     24752.96148                  20811096.2904
        51.5004         41.5004
 04  6 30 17 56 30.0000000  0  8G 3G 9G14G15G18G19G21G22
  21756913.0464      63589.36349     41695.65247                  21756911.4584
        50.2504         37.2504
  23478848.4604     -35040.21949    -29927.57846                  23478847.8214
        38.0004         25.0004
  20664770.6424    -268673.30949   -199858.14848                  20664768.0614
        51.2504         41.5004
  20023326.6504     -33473.49249    -28564.98848                  20023324.1584
        51.7504         42.5004
  22229817.2564     208143.46549    145665.95747                  22229813.9714
        48.7504         33.0004
  22711026.2154    -277509.90649   -204935.32847                  22711021.9954
        46.5004         33.7504
  22573894.6084     284059.58249    200585.13347                  22573891.8314
        45.7504         29.5004
  20812115.9284      46107.18049     28907.69948                  20812111.5584
        52.0004         41.7504
 04  6 30 17 56 45.0000000  0  8G 3G 9G14G15G18G19G21G22
  21758396.0784      71382.02049     47767.83647                  21758394.4754
        50.0004         37.5004
  23478100.8724     -38966.43749    -32986.96946                  23478100.7284
        37.7504         25.2504
  20658718.0824    -300478.77349   -224641.63348                  20658715.6884
        51.5004         41.2504
  20022588.5554     -37350.87549    -31586.32848                  20022586.5034
        51.2504         43.0004
  22234483.3514     232665.51249    164774.02747                  22234480.7334
        48.5004         33.5004
  22704770.5194    -310380.81249   -230549.02347                  22704766.8924
        45.7504         33.0004
  22580325.0214     317850.52749    226915.71147                  22580321.9764
        46.2504         29.0004
  20813129.8504      51436.08249     33060.09048                  20813125.3204
        51.5004         41.5004
 04  6 30 17 57  0.0000000  0  8G 3G 9G14G15G18G19G21G22
  21759894.8714      79258.35949     53905.23847                  21759893.2104
        49.2504         37.0004
  23477373.9874     -42789.46149    -35965.95346                  23477373.2364
        37.5004         25.2504
  20652681.5584    -332202.09849   -249361.09448                  20652678.9664
        51.0004         41.7504
  20021862.8824     -41164.85949    -34558.26648                  20021860.6974
        51.0004         42.2504
  22239146.0864     257166.40649    183865.61747                  22239143.0024
        48.5004         33.2504
  22698530.8874    -343171.80549   -256100.43047                  22698526.7224
        46.5004         34.5004
  22586760.2154     351668.10549    253267.03947                  22586757.5454
        46.0004         28.0004
  20814144.3004      56767.53549     37214.46548                  20814139.9254
        51.5004         41.2504
 04  6 30 17 57 15.0000000  0  8G 3G 9G14G15G18G19G21G22
  21761410.9124      87223.44149     60111.78147                  21761408.8574
        49.7504         36.7504
  23476667.0394     -46504.07849    -38860.45746                  23476665.7814
        37.5004         25.2504
  20646661.6794    -363837.97749   -274012.42248                  20646658.7824
        50.5004         42.0004
  20021150.0774     -44910.17249    -37476.69548                  20021147.8314
        51.2504         42.5004
  22243805.4454     281651.09849    202944.58247                  22243802.8364
        48.7504         34.5004
  22692306.8904    -375877.62549   -281585.48847                  22692303.4414
        45.7504         34.5004
  22593202.0604     385517.36349    279643.05947                  22593199.4954
        46.5004         29.7504
  20815160.5784      62106.60949     41374.78148                  20815155.9414
        51.5004         41.7504
 04  6 30 17 57 30.0000000  0  8G 3G 9G14G15G18G19G21G22
  21762943.8414      95282.18049     66391.30947                  21762941.9664
        49.7504         37.5004
  23475981.3634     -50104.89549    -41666.27046                  23475981.5724
        37.2504         25.5004
  20640659.0094    -395381.12949   -298591.50448                  20640656.5534
        49.7504         41.5004
  20020451.4514     -48581.46949    -40337.44948                  20020449.0134
        51.5004         42.0004
  22248462.7574     306124.84449    222015.02047                  22248460.1824
        48.5004         33.5004
  22686100.5114    -408492.78949   -306999.89147                  22686096.7374
        43.0004         33.5004
  22599650.1954     419403.45749    306047.78547                  22599647.9134
        46.7504         30.0004
  20816179.0214      67458.30549     45544.93848                  20816174.5554
        51.7504         41.7504
 04  6 30 17 57 45.0000000  0  8G 3G 9G14G15G18G19G21G22
  21764495.7084     103437.66849     72746.21947                  21764494.1394
        49.7504         36.7504
  23475319.1104     -53588.82849    -44381.05946                  23475318.4604
        37.0004         25.5004
  20634674.7184    -426828.27049   -323095.76648                  20634672.1914
        50.7504         41.5004
  20019767.6274     -52175.39149    -43137.91848                  20019765.3344
        51.5004         42.0004
  22253118.3424     330590.66849    241079.28147                  22253115.7624
        48.5004         33.7504
  22679912.0784    -441013.86749   -332340.98847                  22679908.2364
        46.5004         33.5004
  22606106.6574     453329.42249    332483.57047                  22606104.0764
        46.0004         29.5004
  20817200.4444      72825.80949     49727.40248                  20817195.7994
        51.7504         41.5004
 04  6 30 17 58  0.0000000  0  8G 3G 9G14G15G18G19G21G22
  21766066.2204     111690.27049     79176.81347                  21766064.7734
        49.5004         36.0004
  23474678.6074     -56955.13349    -47004.15246                  23474677.5634
        37.0004         25.0004
  20628708.9574    -458178.62949   -347524.61348                  20628706.2194
        51.7504         42.0004
  20019098.6984     -55691.23849    -45877.54348                  20019096.2484
        51.0004         42.5004
  22257772.2174     355049.22349    260137.87547                  22257769.6574
        47.5004         33.2504
  22673741.2094    -473440.05949   -357608.14147                  22673737.6824
        47.2504         34.0004
  22612569.8344     487295.73449    358950.79747                  22612567.4924
        46.2504         29.7504
  20818224.6734      78209.67649     53922.62148                  20818220.0524
        52.7504         41.2504
 04  6 30 17 58 15.0000000  0  8G 3G 9G14G15G18G19G21G22
  21767654.3364     120035.88349     85679.87147                  21767652.7694
        50.0004         36.7504
  23474059.8394     -60207.72749    -49538.64847                  23474058.7534
        37.5004         26.0004
  20622761.2004    -489435.89849   -371880.91848                  20622758.3174
        51.0004         41.5004
  20018443.4974     -59132.88749    -48559.35548                  20018441.4444
        50.0004         42.5004
  22262424.6264     379496.62549    279187.78947                  22262421.6274
        47.7504         33.7504
  22667588.4904    -505775.01249   -382804.20747                  22667584.3964
        47.5004         34.0004
  22619040.4024     521298.52349    385446.45347                  22619037.9414
        45.7504         30.7504
  20819251.6064      83605.98449     58127.53548                  20819247.3064
        51.7504         41.5004
 04  6 30 17 58 30.0000000  0  8G 3G 9G14G15G18G19G21G22
  21769261.1834     128479.81649     92259.55547                  21769259.5834
        48.0004         36.5004
  23473463.5194     -63341.06649    -51980.18746                  23473462.6024
        37.0004         25.2504
  20616831.7404    -520594.57849   -396160.41048                  20616828.8884
        49.2504         41.5004
  20017804.0864     -62494.67649    -51178.93048                  20017801.6954
        50.0004         41.7504
  22267075.7764     403938.06649    298233.06347                  22267072.7524
        47.0004         33.5004
  22661453.5714    -538013.09849   -407924.78147                  22661449.5584
        43.7504         33.5004
  22625519.1194     555343.02749    411974.61347                  22625516.9434
        46.0004         30.0004
  20820282.2164      89019.96549     62346.22748                  20820277.3494
        52.0004         41.2504
 04  6 30 17 58 45.0000000  0  8G 3G 9G14G15G18G19G21G22
  21770886.4944     137021.16049     98915.14147                  21770884.9224
        48.7504         36.2504
  23472889.8744     -66355.78149    -54329.32847                  23472888.2614
        37.5004         25.7504
  20610921.2114    -551655.29349   -420363.55148                  20610918.2794
        51.2504         41.7504
  20017179.3854     -65777.23849    -53736.77348                  20017176.9474
        49.5004         42.2504
  22271725.4044     428372.73049    317273.04747                  22271722.6024
        46.7504         33.0004
  22655336.7264    -570154.78949   -432970.25047                  22655333.4754
        46.2504         34.7504
  22632004.9594     589428.37549    438534.59047                  22632003.3654
        46.5004         29.7504
  20821315.4094      94450.83249     66578.05948                  20821310.6694
        51.7504         41.2504
 04  6 30 17 59  0.0000000  0  8G 3G 9G14G15G18G19G21G22
  21772530.1484     145659.37549    105646.21147                  21772528.8054
        48.5004         36.0004
  23472338.7154     -69252.32449    -56586.36346                  23472336.6854
        38.2504         24.0004
  20605029.2554    -582618.30949   -444490.57848                  20605026.5994
        50.5004         42.0004
  20016569.9904     -68980.93049    -56233.16448                  20016567.4624
        49.2504         42.2504
  22276373.9114     452800.18049    336307.40647                  22276370.8644
        47.0004         33.5004
  22649238.8524    -602200.35249   -457940.80947                  22649235.1014
        45.5004         34.2504
  22638499.4314     623554.05949    465126.01247                  22638496.7004
        46.0004         29.2504
  20822351.8274      99897.93049     70822.55548                  20822347.3244
        52.5004         41.2504
 04  6 30 17 59 15.0000000  0  8G 3G 9G14G15G18G19G21G22
  21774192.1894     154391.83249    112450.70747                  21774190.6144
        48.0004         36.2504
  23471809.1274     -72033.05149    -58753.15246                  23471808.1034
        37.5004         25.5004
  20599155.0114    -613485.84849   -468543.19948                  20599152.2844
        49.5004         42.0004
  20015974.5734     -72107.92249    -58669.78548                  20015972.2624
        49.5004         42.5004
  22281020.3664     477217.92649    355334.20747                  22281017.6064
        46.5004         33.7504
  22643158.8604    -634151.95749   -482838.16047                  22643154.8864
        43.5004         33.5004
  22645000.5114     657717.60949    491746.93447                  22644997.4994
        46.5004         29.7504
  20823391.1354     105358.96949     75077.90248                  20823386.4494
        51.2504         41.5004
 04  6 30 17 59 30.0000000  0  8G 3G 9G14G15G18G19G21G22
  21775871.8074     163217.33649    119327.71547                  21775869.8174
        48.0004         36.7504
  23471302.0224     -74698.85949    -60830.40246                  23471300.9014
        38.0004         25.5004
  20593299.4994    -644259.00849   -492522.27748                  20593296.4754
        51.2504         42.2504
  20015394.0394     -75159.07849    -61047.30948                  20015391.4984
        50.0004         42.0004
  22285665.0654     501624.97349    374352.67647                  22285662.2704
        45.2504         33.0004
  22637096.2654    -666010.45749   -507662.94947                  22637092.8454
        46.0004         34.0004
  22651508.2494     691917.88749    518396.47747                  22651505.9644
        46.2504         30.0004
  20824432.7104     110832.69149     79343.14548                  20824428.0584
        52.0004         41.7504
 04  6 30 17 59 45.0000000  0  8G 3G 9G14G15G18G19G21G22
  21777568.3344     172134.78549    126276.35947                  21777567.0564
        49.2504         36.0004
  23470816.4274     -77250.43449    -62818.65246                  23470814.8994
        38.0004         24.5004
  20587461.0694    -674938.29349   -516428.21148                  20587458.1284
        51.0004         42.0004
  20014827.8024     -78135.10249    -63366.29348                  20014825.2664
        50.0004         42.0004
  22290307.0764     526020.39549    393362.07447                  22290304.6294
        47.0004         33.0004
  22631051.3504    -697776.35249   -532415.59847                  22631047.2354
        47.0004         33.5004
  22658023.1614     726154.16449    545074.06647                  22658020.2114
        46.0004         29.5004
  20825476.6114     116318.19949     83617.55548                  20825472.1144
        51.7504         41.5004
 04  6 30 18  0  0.0000000  0  8G 3G 9G14G15G18G19G21G22
  21779282.5224     181141.93049    133294.90247                  21779280.9444
        48.7504         36.2504
  23470352.7704     -79689.83249    -64719.49246                  23470350.9174
        39.2504         24.5004
  20581640.4144    -705525.55549   -540262.43748                  20581637.6264
        51.0004         42.5004
  20014275.2914     -81037.90249    -65628.22348                  20014272.8274
        50.5004         42.0004
  22294946.8754     550402.19549    412360.86747                  22294943.9084
        46.2504         33.5004
  22625024.2074    -729451.52349   -557097.53947                  22625019.9444
        47.0004         34.0004
  22664544.4294     760424.23049    571777.99647                  22664541.7134
        45.2504         29.5004
  20826522.3104     121813.45749     87899.57048                  20826517.8694
        51.5004         41.7504
 04  6 30 18  0 15.0000000  0  8G 3G 9G14G15G18G19G21G22
  21781014.0634     190240.15649    140384.41847                  21781012.3374
        49.5004         37.0004
  23469910.4004     -82015.39549    -66531.60946                  23469907.9594
        42.2504         25.0004
  20575838.1534    -736019.33649   -564023.82048                  20575834.9864
        51.2504         42.5004
  20013737.3014     -83865.97749    -67831.91448                  20013734.8314
        51.0004         42.7504
  22299584.3384     574771.65249    431350.03947                  22299581.4614
        46.7504         33.2504
  22619014.3114    -761034.25849   -581707.46147                  22619009.9024
        46.7504         33.5004
  22671073.0054     794729.40649    598509.26247                  22671070.3014
        45.5004         29.7504
  20827570.0874     127319.92649     92190.32048                  20827565.7534
        51.2504         41.5004
 04  6 30 18  0 30.0000000  0  8G 3G 9G14G15G18G19G21G22
  21782762.2804     199427.55149    147543.41447                  21782760.4964
        48.7504         36.0004
  23469489.1754     -84228.93049    -68256.42647                  23469487.4614
        44.5004         26.0004
  20570052.7174    -766421.25449   -587713.61748                  20570049.9044
        50.7504         42.2504
  20013213.2994     -86620.78549    -69978.53148                  20013210.5924
        51.7504         42.0004
  22304218.9554     599126.98849    450328.21547                  22304216.1214
        47.7504         33.0004
  22613021.3924    -792525.97749   -606246.45347                  22613017.3004
        46.0004         33.7504
  22677607.0504     829067.80549    625266.42247                  22677604.4914
        45.7504         28.5004
  20828619.8244     132835.71949     96488.34448                  20828615.3284
        51.7504         42.0004
 04  6 30 18  0 45.0000000  0  8G 3G 9G14G15G18G19G21G22
  21784527.7944     208704.91449    154772.52047                  21784526.1284
        50.2504         36.7504
  23469088.9074     -86329.29349    -69893.07447                  23469088.1144
        43.5004         26.0004
  20564284.9794    -796730.14549   -611330.92648                  20564282.2454
        50.2504         42.5004
  20012703.1264     -89301.23849    -72067.19548                  20012700.4374
        51.7504         42.5004
  22308851.4314     623469.16049    469296.12947                  22308848.3684
        48.7504         34.5004
  22607046.1074    -823925.58649   -630713.67647                  22607042.4794
        44.5004         33.7504
  22684147.9404     863440.33249    652050.19147                  22684144.7764
        46.7504         29.5004
  20829671.2684     138361.75049    100794.34048                  20829666.9364
        52.0004         41.5004
 04  6 30 18  1  0.0000000  0  8G 3G 9G14G15G18G19G21G22
  21786310.1094     218072.44549    162071.87547                  21786308.3834
        49.0004         37.0004
  23468710.6524     -88316.02049    -71441.17646                  23468709.2944
        44.5004         25.5004
  20558535.4484    -826945.45349   -634875.31648                  20558532.5394
        51.0004         42.5004
  20012207.2274     -91906.76649    -74097.48448                  20012204.8164
        52.0004         42.7504
  22313481.0174     647798.73449    488254.21547                  22313478.3574
        48.2504         33.5004
  22601088.6744    -855232.42249   -655108.59847                  22601084.8754
        47.0004         33.7504
  22690695.5004     897847.42249    678860.87947                  22690693.0984
        42.7504         30.2504
  20830724.8324     143898.34049    105108.56348                  20830720.4364
        50.7504         41.7504
 04  6 30 18  1 15.0000000  0  8G 3G 9G14G15G18G19G21G22
  21788109.7574     227529.64149    169441.10547                  21788108.3384
        49.2504         36.2504
  23468354.6434     -90189.39549    -72900.93746                  23468352.1504
        43.7504         25.2504
  20552802.9494    -857067.43749   -658346.99248                  20552800.2854
        50.2504         41.7504
  20011725.4874     -94437.54349    -76069.52748                  20011723.1674
        51.7504         42.7504
  22318108.1404     672115.04349    507201.97747                  22318105.7324
        48.2504         33.5004
  22595148.4614    -886446.46949   -679431.23047                  22595145.1104
        44.5004         34.5004
  22697249.6294     932288.77049    705698.25447                  22697246.9034
        46.5004         29.5004
  20831780.3434     149445.09849    109430.70348                  20831775.9294
        51.5004         41.7504
 04  6 30 18  1 30.0000000  0  8G 3G 9G14G15G18G19G21G22
  21789926.8524     237077.11349    176880.68047                  21789924.9764
        49.0004         36.0004
  23468020.1644     -91948.71149    -74271.83647                  23468018.0394
        40.5004         27.7504
  20547088.7974    -887095.18049   -681745.22748                  20547086.1804
        50.2504         41.7504
  20011258.3234     -96892.69549    -77982.63348                  20011256.0474
        51.0004         42.0004
  22322733.6024     696418.89149    526140.02347                  22322730.6544
        47.5004         33.5004
  22589226.8784    -917566.84449   -703680.85947                  22589222.8304
        45.0004         34.5004
  22703810.2664     966764.80549    732562.67247                  22703807.0804
        44.5004         28.7504
  20832837.9704     155002.62949    113761.24648                  20832833.9094
        51.7504         41.5004
 04  6 30 18  1 45.0000000  0  8G 3G 9G14G15G18G19G21G22
  21791760.4254     246713.60949    184389.64147                  21791758.7284
        49.7504         36.2504
  23467706.6704     -93595.00449    -75554.64847                  23467704.7434
        39.2504         26.5004
  20541392.7924    -917029.78949   -705070.89148                  20541389.9014
        50.7504         42.0004
  20010805.2984     -99273.35949    -79837.69948                  20010802.8914
        50.2504         42.0004
  22327355.3844     720708.91049    545067.30147                  22327352.4634
        48.5004         33.0004
  22583322.3704    -948594.51649   -727858.26247                  22583318.9214
        46.7504         35.2504
  22710377.0914    1001274.37949    759453.23047                  22710374.5784
        45.2504         28.5004
  20833897.1364     160569.73449    118099.25048                  20833892.9164
        51.0004         41.5004
 04  6 30 18  2  0.0000000  0  8G 3G 9G14G15G18G19G21G22
  21793610.9874     256439.14149    191967.96147                  21793609.1134
        48.2504         36.2504
  23467414.7424     -95127.93749    -76749.15247                  23467413.6454
        42.0004         25.7504
  20535714.1424    -946870.67649   -728323.53148                  20535711.5494
        50.7504         42.0004
  20010366.5144    -101579.03149    -81634.33248                  20010364.2424
        51.5004         42.5004
  22331975.1004     744985.57049    563984.16047                  22331971.8554
        46.5004         33.0004
  22577435.8764    -979528.95349   -751963.00847                  22577432.3824
        46.2504         34.7504
  22716950.2374    1035817.60949    786369.98847                  22716948.2604
        45.5004         29.5004
  20834958.4614     166146.69149    122444.93048                  20834954.0954
        51.5004         41.0004
 04  6 30 18  2 15.0000000  0  8G 3G 9G14G15G18G19G21G22
  21795479.1834     266255.09449    199616.74647                  21795477.4724
        48.7504         36.2504
  23467145.0944     -96545.84049    -77854.00847                  23467143.6524
        44.2504         27.0004
  20530053.9924    -976616.24649   -751501.89148                  20530051.1474
        51.5004         42.0004
  20009942.5534    -103807.93449    -83371.14848                  20009939.9284
        51.7504         42.5004
  22336592.2334     769250.47749    582891.87547                  22336589.1134
        46.7504         33.0004
  22571567.1204   -1010368.40249   -775993.73847                  22571563.2464
        46.5004         35.0004
  22723530.7014    1070395.98449    813314.15247                  22723527.9414
        44.7504         29.0004
  20836021.9404     171734.99649    126799.44148                  20836017.6934
        51.2504         41.5004
 04  6 30 18  2 30.0000000  0  8G 3G 9G14G15G18G19G21G22
  21797364.6234     276162.65649    207336.91447                  21797362.8254
        49.2504         36.7504
  23466897.5914     -97847.26249    -78868.08647                  23466896.5284
        40.0004         26.7504
  20524411.7144   -1006264.99249   -774604.80548                  20524408.8564
        51.0004         42.0004
  20009532.9414    -105958.67649    -85047.05148                  20009530.5994
        51.2504         42.2504
  22341208.1794     793504.77049    601791.32047                  22341205.0144
        47.5004         33.2504
  22565717.0294   -1041111.16849   -799949.12947                  22565713.3674
        46.5004         34.5004
  22730117.2854    1105010.90249    840286.80547                  22730114.8804
        45.0004         29.2504
  20837087.7754     177335.91849    131163.79748                  20837083.4284
        51.2504         41.0004
 04  6 30 18  2 45.0000000  0  8G 3G 9G14G15G18G19G21G22
  21799267.0744     286161.82449    215128.46147                  21799266.1774
        49.0004         36.5004
  23466672.4034     -99032.01249    -79791.27347                  23466670.9224
        38.7504         26.0004
  20518788.4224   -1035816.64149   -797632.05948                  20518785.4294
        51.0004         42.0004
  20009138.6654    -108030.96549    -86661.83648                  20009136.1924
        50.5004         42.5004
  22345821.5474     817748.62149    620682.62547                  22345818.7824
        47.2504         33.7504
  22559885.0284   -1071757.10549   -823829.07447                  22559881.3974
        46.5004         34.7504
  22736711.1804    1139662.50449    867288.01647                  22736709.3414
        45.5004         28.0004
  20838156.3694     182949.56349    135538.05548                  20838151.8834
        51.5004         41.0004
 04  6 30 18  3  0.0000000  0  8G 3G 9G14G15G18G19G21G22
  21801187.5044     296252.77349    222991.53147                  21801186.1154
        49.2504         36.5004
  23466468.6804    -100099.78149    -80623.29747                  23466467.4494
        37.7504         26.0004
  20513183.5054   -1065270.59849   -820583.18748                  20513180.5194
        51.0004         42.0004
  20008759.5544    -110024.10949    -88214.93748                  20008757.2994
        50.5004         42.5004
  22350433.1384     841982.50849    639566.15647                  22350430.3864
        47.2504         33.5004
  22554072.3484   -1102305.49649   -847633.00047                  22554068.3644
        46.5004         34.5004
  22743312.8904    1174351.21949    894318.14547                  22743309.9254
        44.7504         29.0004
  20839226.9514     188576.23449    139922.47748                  20839222.3834
        51.7504         41.0004
 04  6 30 18  3 15.0000000  0  8G 3G 9G14G15G18G19G21G22
  21803125.0824     306435.93849    230926.45347                  21803123.8704
        49.5004         36.2504
  23466287.2464    -101049.85949    -81363.61747                  23466287.2244
        40.5004         26.0004
  20507597.3024   -1094626.23449   -843457.71148                  20507594.1714
        51.0004         42.2504
  20008395.4234    -111937.51249    -89705.91448                  20008393.0764
        51.5004         42.7504
  22355042.6734     866206.80149    658442.21947                  22355040.3384
        47.5004         32.5004
  22548277.5694   -1132755.45749   -871360.23847                  22548273.9064
        47.0004         34.2504
  22749920.6814    1209077.28949    921377.41047                  22749917.6584
        45.2504         29.0004
  20840300.0464     194216.48449    144317.46148                  20840295.4284
        51.7504         42.0004
 04  6 30 18  3 30.0000000  0  8G 3G 9G14G15G18G19G21G22
  21805080.5684     316711.56649    238933.42247                  21805079.1174
        49.5004         36.5004
  23466129.2174    -101881.72349    -82011.82847                  23466129.1064
        42.0004         26.0004
  20502030.0974   -1123882.89849   -866255.09848                  20502027.0704
        50.5004         41.7504
  20008046.5304    -113770.52049    -91134.24248                  20008044.0984
        52.0004         42.2504
  22359650.1934     890421.84449    677311.06347                  22359648.2994
        47.5004         33.0004
  22542502.3294   -1163106.35949   -895010.28147                  22542498.6034
        48.0004         33.7504
  22756535.9144    1243840.91449    948465.92247                  22756533.6714
        44.5004         28.7504
  20841376.2024     199870.71949    148723.35548                  20841371.7884
        51.2504         42.0004
 04  6 30 18  3 45.0000000  0  8G 3G 9G14G15G18G19G21G22
  21807053.7584     327080.70349    247013.26247                  21807052.3874
        49.2504         36.2504
  23465993.5814    -102593.96549    -82566.84447                  23465992.5084
        42.5004         25.7504
  20496481.2254   -1153039.25849   -888974.33648                  20496478.8684
        50.7504         42.0004
  20007713.4544    -115521.67649    -92498.78548                  20007710.9934
        51.5004         42.5004
  22364257.5354     914628.98849    696173.75847                  22364254.6024
        48.0004         33.2504
  22536745.6064   -1193356.63349   -918581.91847                  22536742.1274
        47.2504         34.2504
  22763158.8654    1278643.57449    975584.83647                  22763155.9714
        43.7504         28.7504
  20842454.6614     205540.18049    153141.11748                  20842450.3424
        51.0004         41.7504
 04  6 30 18  4  0.0000000  0  8G 3G 9G14G15G18G19G21G22
  21809045.0124     337543.81649    255166.32447                  21809043.2794
        49.7504         36.5004
  23465881.2494    -103186.10249    -83028.26647                  23465879.9814
        41.2504         27.0004
  20490952.2564   -1182094.61349   -911614.87548                  20490949.7534
        50.2504         42.2504
  20007395.7764    -117190.32849    -93799.03548                  20007393.5604
        52.2504         42.0004
  22368862.4784     938828.77749    715030.72747                  22368859.4154
        48.0004         33.2504
  22531008.6044   -1223505.48049   -942074.51247                  22531004.7584
        46.0004         34.7504
  22769788.8904    1313485.78149   1002734.58647                  22769786.5724
        44.5004         28.0004
  20843536.5814     211225.23449    157571.02348                  20843532.3464
        51.5004         41.5004
 04  6 30 18  4 15.0000000  0  8G 3G 9G14G15G18G19G21G22
  21811053.9214     348101.77049    263393.28147                  21811052.2534
        50.2504         36.5004
  23465791.1474    -103656.87149    -83395.12547                  23465790.4714
        42.5004         26.0004
  20485442.7124   -1211047.73449   -934175.74648                  20485440.4024
        50.0004         42.2504
  20007094.2584    -118775.18749    -95033.99648                  20007092.1234
        51.7504         42.2504
  22373466.0274     963022.46149    733882.94547                  22373463.1564
        48.2504         32.2504
  22525291.0054   -1253551.66849   -965487.12547                  22525287.4284
        44.7504         34.2504
  22776426.8844    1348368.52349   1029915.92247                  22776424.3274
        44.0004         27.5004
  20844621.4674     216927.07049    162014.00448                  20844617.3364
        52.0004         41.5004
 04  6 30 18  4 30.0000000  0  8G 3G 9G14G15G18G19G21G22
  21813080.8494     358753.42649    271693.27047                  21813079.4004
        50.2504         36.0004
  23465724.5484    -104007.23849    -83668.14147                  23465724.3584
        42.2504         27.0004
  20479952.3854   -1239899.51249   -956657.64548                  20479950.0524
        50.7504         42.2504
  20006808.4284    -120277.10249    -96204.32448                  20006806.2874
        52.0004         42.5004
  22378068.5684     987208.88349    752729.48847                  22378065.6194
        48.5004         32.0004
  22519592.8764   -1283495.96949   -988820.32847                  22519588.8234
        47.5004         35.2504
  22783072.6834    1383290.66449   1057127.94947                  22783070.9034
        44.2504         28.7504
  20845709.8334     222644.59049    166469.20748                  20845705.1264
        51.5004         41.0004
 04  6 30 18  4 45.0000000  0  8G 3G 9G14G15G18G19G21G22
  21815125.7034     369499.71549    280066.98847                  21815124.3864
        49.7504         36.0004
  23465681.1564    -104236.06249    -83846.47746                  23465680.6484
        40.5004         25.2504
  20474481.6754   -1268648.79349   -979059.67248                  20474478.8554
        50.5004         42.2504
  20006538.5804    -121694.94549    -97309.13748                  20006536.2184
        51.7504         42.2504
  22382669.9474    1011389.07849    771571.19147                  22382667.0624
        48.0004         32.5004
  22513914.4234   -1313337.07049  -1012073.13347                  22513910.6554
        48.0004         34.5004
  22789725.6554    1418253.27049   1084371.50847                  22789723.2124
        43.7504         28.5004
  20846800.9214     228378.84049    170937.45348                  20846796.7224
        51.5004         41.2504
 04  6 30 18  5  0.0000000  0  8G 3G 9G14G15G18G19G21G22
  21817189.0264     380341.58249    288515.18447                  21817187.3274
        48.7504         36.5004
  23465660.7924    -104342.17649    -83929.18447                  23465660.3214
        41.5004         25.7504
  20469030.7124   -1297294.20349  -1001380.77348                  20469027.7794
        51.2504         42.2504
  20006285.1374    -123027.44549    -98347.45748                  20006282.7814
        52.2504         42.2504
  22387270.3154    1035564.10949    790408.85947                  22387268.4174
        47.5004         32.7504
  22508255.5104   -1343073.59449  -1035244.44147                  22508251.8414
        47.5004         35.0004
  22796386.5394    1453257.26649   1111647.33647                  22796383.6674
        43.5004         27.0004
  20847895.2594     234130.89549    175419.56648                  20847890.8694
        50.7504         41.0004
 04  6 30 18  5 15.0000000  0  8G 3G 9G14G15G18G19G21G22
  21819270.6304     391279.64549    297038.33647                  21819269.2264
        49.0004         36.2504
  23465664.8414    -104324.84049    -83915.68047                  23465663.5184
        42.0004         25.7504
  20463599.6404   -1325834.85949  -1023620.23848                  20463596.7724
        51.0004         42.0004
  20006047.8184    -124273.74649    -99318.60548                  20006045.5434
        52.0004         42.0004
  22391869.9694    1059734.72749    809243.09447                  22391867.3034
        48.5004         33.2504
  22502617.0304   -1372704.56249  -1058333.50447                  22502613.2774
        47.5004         34.5004
  22803055.8254    1488303.40649   1138955.99647                  22803054.2304
        43.2504         28.0004
  20848993.7764     239901.38349    179916.05148                  20848989.1184
        51.2504         41.0004
 04  6 30 18  5 30.0000000  0  8G 3G 9G14G15G18G19G21G22
  21821369.7804     402313.10249    305635.82847                  21821368.3924
        49.0004         36.7504
  23465690.9114    -104184.44949    -83806.28946                  23465690.5824
        41.7504         25.2504
  20458188.3254   -1354271.10249  -1045778.34448                  20458185.6104
        49.5004         41.7504
  20005827.3864    -125434.09049   -100222.77748                  20005825.0404
        51.5004         42.5004
  22396468.4064    1083900.62149    828073.64847                  22396465.9884
        47.7504         33.5004
  22496998.5104   -1402230.17649  -1081340.46547                  22496994.6214
        45.5004         35.2504
  22809732.1724    1523391.14549   1166297.04347                  22809731.3864
        42.5004         28.0004
  20850095.1384     245689.89849    184426.57048                  20850090.6514
        51.0004         41.2504
 04  6 30 18  5 45.0000000  0  8G 3G 9G14G15G18G19G21G22
  21823487.7454     413442.37949    314307.97347                  21823486.4154
        50.2504         36.7504
  23465741.6654    -103920.46149    -83600.60247                  23465740.6764
        41.2504         26.2504
  20452797.1514   -1382602.29749  -1067854.59848                  20452794.6174
        50.5004         42.0004
  20005623.1574    -126507.79349   -101059.43748                  20005620.5024
        52.0004         42.7504
  22401066.3914    1108062.02049    846900.69547                  22401063.7814
        47.7504         33.0004
  22491400.1194   -1431649.80149  -1104264.84047                  22491395.9174
        46.0004         35.2504
  22816417.7474    1558520.91049   1193670.85247                  22816415.0734
        42.7504         28.0004
  20851200.0014     251496.80149    188951.41848                  20851195.7354
        51.0004         42.0004
 04  6 30 18  6  0.0000000  0  8G 3G 9G14G15G18G19G21G22
  21825624.0694     424667.78949    323055.03947                  21825622.5184
        49.5004         36.7504
  23465816.5004    -103532.38349    -83298.23047                  23465814.2594
        43.7504         26.7504
  20447426.2304   -1410827.88349  -1089848.55948                  20447423.1694
        51.0004         42.0004
  20005435.2534    -127494.26649   -101828.11748                  20005432.6934
        52.2504         42.7504
  22405663.0444    1132219.52049    865724.70747                  22405660.5984
        47.5004         32.5004
  22485822.1554   -1460962.74649  -1127106.09047                  22485817.9234
        47.7504         35.2504
  22823110.7524    1593693.10549   1221077.76247                  22823107.7694
        45.5004         28.0004
  20852308.9324     257322.56349    193490.96948                  20852304.5074
        51.7504         41.5004
 04  6 30 18  6 15.0000000  0  8G 3G 9G14G15G18G19G21G22
  21827778.6284     435989.68449    331877.28147                  21827777.1764
        49.7504         37.0004
  23465913.3474    -103019.50049    -82898.58647                  23465911.9884
        43.0004         26.0004
  20442074.8504   -1438947.12549  -1111759.65248                  20442072.1214
        51.0004         42.0004
  20005264.3534    -128392.76649   -102528.25448                  20005261.8244
        51.2504         42.5004
  22410259.5034    1156373.71149    884546.13347                  22410257.2024
        47.7504         32.2504
  22480264.4924   -1490168.16449  -1149863.55547                  22480260.3944
        47.7504         34.7504
  22829811.8334    1628908.27349   1248518.09847                  22829810.2654
        42.7504         27.7504
  20853421.0934     263167.72349    198045.63348                  20853416.6274
        51.0004         41.7504
 04  6 30 18  6 30.0000000  0  8G 3G 9G14G15G18G19G21G22
  21829951.6414     447408.44949    340775.01247                  21829950.4664
        49.0004         37.0004
  23466034.5164    -102381.25449    -82401.26647                  23466033.3404
        43.0004         25.7504
  20436744.5214   -1466959.48849  -1133587.45748                  20436741.7434
        50.5004         42.0004
  20005109.8934    -129202.64849   -103159.33648                  20005107.8794
        52.0004         42.2504
  22414855.8694    1180525.08249    903365.38347                  22414852.8394
        47.5004         32.5004
  22474727.4244   -1519265.34849  -1172536.67647                  22474723.1654
        48.2504         35.0004
  22836522.3554    1664166.87149   1275992.29347                  22836519.9114
        45.0004         27.5004
  20854537.0814     269032.73449    202615.77048                  20854532.7814
        51.2504         40.7504
 04  6 30 18  6 45.0000000  0  8G 3G 9G14G15G18G19G21G22
  21832143.3264     458924.45749    349748.51647                  21832141.7864
        50.2504         36.7504
  23466180.2754    -101616.92649    -81805.67646                  23466179.2624
        44.0004         25.5004
  20431434.2414   -1494864.13349  -1155331.33248                  20431431.4374
        50.0004         42.0004
  20004973.1034    -129923.10549   -103720.73448                  20004970.6064
        52.0004         42.5004
  22419451.3414    1204674.25849    922182.91047                  22419448.5134
        48.2504         32.2504
  22469211.3714   -1548253.28149  -1195124.66847                  22469206.7154
        47.5004         35.0004
  22843239.4514    1699469.55949   1303500.87947                  22843237.0774
        43.0004         28.0004
  20855656.8684     274918.27049    207201.89848                  20855652.6634
        51.5004         41.2504
 04  6 30 18  7  0.0000000  0  8G 3G 9G14G15G18G19G21G22
  21834352.6004     470537.23049    358797.41447                  21834351.6084
        48.5004         36.0004
  23466350.0414    -100726.82449    -81112.11347                  23466348.5654
        44.0004         27.7504
  20426144.7114   -1522661.17249  -1176991.36348                  20426141.8594
        48.7504         42.0004
  20004852.8804    -130554.27749   -104212.56648                  20004850.7144
        52.0004         42.5004
  22424045.8124    1228820.89149    940998.46147                  22424043.5494
        47.5004         32.7504
  22463715.7704   -1577132.25049  -1217627.75847                  22463711.7454
        45.0004         35.2504
  22849965.2344    1734815.88749   1331043.43047                  22849963.4764
        41.5004         27.5004
  20856781.0684     280823.98849    211803.75848                  20856776.5544
        50.5004         41.0004
 04  6 30 18  7 15.0000000  0  8G 3G 9G14G15G18G19G21G22
  21836581.3174     482247.86749    367922.57047                  21836579.7064
        49.5004         37.0004
  23466542.7384     -99709.71549    -80319.58647                  23466541.7404
        42.5004         26.0004
  20420875.6414   -1550349.31649  -1198566.53548                  20420872.8184
        50.5004         42.0004
  20004749.9604    -131094.92649   -104633.85548                  20004747.9194
        52.0004         42.2504
  22428641.0064    1252966.14149    959812.91447                  22428638.5214
        47.5004         32.0004
  22458241.4814   -1605900.71949  -1240044.74247                  22458236.8684
        47.5004         35.5004
  22856700.9514    1770206.81349   1358620.73847                  22856698.6624
        45.0004         29.5004
  20857908.9524     286750.93049    216422.14548                  20857904.5844
        51.2504         41.5004
 04  6 30 18  7 30.0000000  0  8G 3G 9G14G15G18G19G21G22
  21838828.6964     494057.45349    377124.83647                  21838827.2104
        49.5004         36.5004
  23466761.5084     -98564.17649    -79426.97347                  23466760.0244
        44.0004         26.5004
  20415627.6964   -1577927.10949  -1220055.71548                  20415625.2494
        49.7504         42.0004
  20004664.6124    -131543.45749   -104983.36748                  20004662.4034
        52.5004         42.7504
  22433235.0794    1277111.43049    978627.41047                  22433233.1964
        47.5004         32.5004
  22452788.1724   -1634557.04349  -1262374.33247                  22452783.9404
        46.0004         35.0004
  22863443.6394    1805643.80949   1386233.96547                  22863441.6514
        43.7504         29.0004
  20859041.0214     292700.56349    221058.21948                  20859036.7234
        51.7504         41.2504
 04  6 30 18  7 45.0000000  0  8G 3G 9G14G15G18G19G21G22
  21841094.7784     505965.51649    386403.83647                  21841093.4844
        49.0004         36.2504
  23467003.4154     -97290.63749    -78434.59847                  23467002.1354
        43.5004         26.2504
  20410400.7564   -1605394.84449  -1241459.14548                  20410398.3474
        51.2504         41.5004
  20004596.8034    -131900.12949   -105261.30148                  20004594.6454
        51.7504         42.5004
  22437830.1004    1301256.35249    997441.60947                  22437827.4504
        48.0004         32.2504
  22447356.0484   -1663101.58249  -1284616.82847                  22447352.0444
        48.0004         34.7504
  22870195.9974    1841126.34049   1413882.64847                  22870192.9484
        42.5004         26.5004
  20860177.4054     298672.43849    225711.61748                  20860172.9464
        51.0004         41.2504
 04  6 30 18  8  0.0000000  0  8G 3G 9G14G15G18G19G21G22
  21843379.2644     517971.14549    395758.86347                  21843377.6984
        49.7504         36.2504
  23467269.6904     -95889.59449    -77342.87946                  23467268.5854
        43.0004         25.0004
  20405194.9614   -1632753.02349  -1262777.20348                  20405192.1274
        51.2504         42.2504
  20004546.2934    -132165.48849   -105468.08248                  20004543.9864
        52.2504         42.5004
  22442424.6944    1325400.13349   1016254.93047                  22442421.7554
        48.5004         33.0004
  22441945.1914   -1691534.78949  -1306772.57047                  22441941.2244
        48.0004         35.0004
  22876957.3704    1876653.52049   1441566.14847                  22876954.3564
        44.5004         29.2504
  20861318.0364     304665.80549    230381.76248                  20861313.5064
        51.2504         41.0004
 04  6 30 18  8 15.0000000  0  8G 3G 9G14G15G18G19G21G22
  21845682.5684     530074.75049    405190.22747                  21845681.1354
        49.5004         35.5004
  23467561.8294     -94360.45349    -76151.35246                  23467560.1584
        44.0004         25.5004
  20400009.9544   -1660000.91849  -1284009.32448                  20400007.4014
        50.7504         42.2504
  20004513.0834    -132338.78149   -105603.11748                  20004511.3664
        51.7504         42.7504
  22447019.0444    1349543.44149   1035067.90247                  22447015.6254
        48.2504         32.7504
  22436556.2454   -1719855.76249  -1328840.85247                  22436552.2834
        46.7504         35.0004
  22883725.4714    1912226.04749   1469284.96547                  22883723.6034
        44.5004         27.7504
  20862462.5964     310681.20349    235069.08648                  20862458.0724
        51.0004         41.5004
 04  6 30 18  8 30.0000000  0  8G 3G 9G14G15G18G19G21G22
  21848004.2374     542276.11749    414697.77347                  21848003.2034
        49.5004         36.5004
  23467876.0224     -92703.29749    -74860.07446                  23467875.3234
        43.5004         23.7504
  20394845.6834   -1687138.48449  -1305155.47748                  20394843.1214
        49.2504         42.5004
  20004497.9194    -132419.92249   -105666.35548                  20004495.4884
        52.2504         43.2504
  22451613.3494    1373686.09849   1053880.34447                  22451609.8474
        48.2504         32.5004
  22431188.3424   -1748064.41049  -1350821.61347                  22431184.5894
        45.0004         35.0004
  22890503.8944    1947843.69949   1497038.93447                  22890501.0614
        42.5004         27.0004
  20863611.4574     316718.44949    239773.42648                  20863607.1904
        50.7504         41.0004
 04  6 30 18  8 45.0000000  0  8G 3G 9G14G15G18G19G21G22
  21850345.0944     554575.84849    424281.97347                  21850343.3424
        50.0004         35.7504
  23468216.4424     -90917.15249    -73468.27046                  23468214.5204
        44.0004         23.0004
  20389702.6984   -1714164.74649  -1326214.89548                  20389700.0514
        51.0004         42.0004
  20004500.0894    -132407.89549   -105656.98848                  20004498.0454
        52.2504         42.5004
  22456206.9544    1397829.08249   1072693.05547                  22456204.5564
        48.2504         32.7504
  22425841.8794   -1776159.61349  -1372713.97747                  22425838.6154
        47.5004         35.0004
  22897290.8544    1983507.18049   1524828.64547                  22897287.5604
        45.5004         28.2504
  20864764.7604     322778.37949    244495.44548                  20864760.3154
        51.2504         41.5004
 04  6 30 18  9  0.0000000  0  8G 3G 9G14G15G18G19G21G22
  21852704.4184     566973.67249    433942.59847                  21852702.7894
        50.0004         36.5004
  23468580.1594     -89002.20749    -71976.10246                  23468579.5984
        43.2504         22.2504
  20384581.1344   -1741079.66849  -1347187.55548                  20384578.2834
        50.7504         42.2504
  20004520.0224    -132302.71149   -105575.03548                  20004517.7174
        52.5004         42.5004
  22460801.4144    1421972.19949   1091505.85247                  22460798.9284
        47.7504         32.7504
  22420517.2864   -1804141.26249  -1394517.85247                  22420513.3774
        48.2504         35.0004
  22904084.9524    2019216.30949   1552653.92647                  22904082.3244
        42.7504         28.2504
  20865922.5454     328860.98449    249235.12548                  20865917.7974
        51.0004         41.2504
 04  6 30 18  9 15.0000000  0  8G 3G 9G14G15G18G19G21G22
  21855082.0824     579469.67249    443679.72747                  21855080.5334
        50.2504         36.5004
  23468969.2514     -86958.11349    -70383.29346                  23468967.9664
        43.0004         23.0004
  20379480.4044   -1767882.98849  -1368073.26648                  20379477.8594
        50.7504         42.7504
  20004557.7564    -132104.00449   -105420.20748                  20004555.6294
        52.2504         42.5004
  22465396.0884    1446115.77049   1110319.00047                  22465393.2794
        48.0004         32.2504
  22415214.3334   -1832008.86349  -1416232.85947                  22415210.3584
        48.0004         35.0004
  22910889.4384    2054971.41049   1580515.00047                  22910886.7184
        43.0004         26.5004
  20867083.9504     334966.43849    253992.61748                  20867079.7964
        51.5004         41.2504
 04  6 30 18  9 30.0000000  0  8G 3G 9G14G15G18G19G21G22
  21857479.1814     592064.87149    453494.15647                  21857477.3414
        49.7504         36.5004
  23469383.1174     -84783.69949    -68688.95746                  23469381.8264
        42.7504         23.2504
  20374401.7674   -1794573.39549  -1388870.97348                  20374398.9124
        50.7504         42.0004
  20004613.6984    -131810.44149   -105191.46548                  20004611.5774
        51.2504         42.5004
  22469990.8024    1470260.94949   1129133.41047                  22469988.2694
        48.0004         33.0004
  22409932.8784   -1859761.05549  -1437857.94547                  22409929.0644
        47.5004         35.0004
  22917702.6184    2090773.63349   1608412.79347                  22917699.9624
        43.7504         28.2504
  20868250.3164     341095.94549    258768.84848                  20868246.0524
        51.0004         40.7504
 04  6 30 18  9 45.0000000  0  8G 3G 9G14G15G18G19G21G22
  21859894.6254     604759.18449    463385.81647                  21859892.6294
        50.0004         36.2504
  23469821.5734     -82478.87149    -66892.99646                  23469820.2354
        43.2504         23.5004
  20369343.8524   -1821150.61749  -1409580.49648                  20369340.8754
        49.5004         42.0004
  20004687.6154    -131421.80149   -104888.62948                  20004685.5464
        51.5004         42.5004
  22474585.9294    1494407.78149   1147949.10247                  22474583.0584
        48.2504         32.5004
  22404673.7244   -1887397.55549  -1459392.87147                  22404670.0054
        46.0004         35.0004
  22924524.2254    2126622.87549   1636347.25847                  22924521.9554
        43.7504         27.7504
  20869421.2174     347249.45749    263563.78948                  20869416.7994
        51.0004         40.2504
 04  6 30 18 10  0.0000000  0  8G 3G 9G14G15G18G19G21G22
  21862329.6044     617554.61749    473356.27347                  21862327.6834
        49.5004         36.0004
  23470285.7094     -80041.21949    -64993.52346                  23470283.7634
        42.0004         22.2504
  20364308.6104   -1847612.34849  -1430200.02348                  20364305.5714
        50.7504         42.0004
  20004780.3774    -130935.59449   -104509.78148                  20004777.8914
        51.7504         42.0004
  22479181.6624    1518558.59449   1166767.91047                  22479178.8274
        48.0004         32.0004
  22399437.5574   -1914915.90649  -1480835.74647                  22399433.4474
        46.5004         35.0004
  22931355.7364    2162521.38749   1664320.07847                  22931353.2674
        42.5004         26.0004
  20870597.3204     353429.21549    268379.18048                  20870592.8794
        52.0004         40.7504
 04  6 30 18 10 15.0000000  0  8G 3G 9G14G15G18G19G21G22
  21864783.3344     630450.28949    483404.84047                  21864781.7274
        50.2504         36.0004
  23470774.3234     -77471.48049    -62991.12546                  23470772.2744
        41.5004         24.0004
  20359295.0634   -1873959.14849  -1450729.99648                  20359292.0944
        48.0004         42.5004
  20004891.2034    -130352.51649   -104055.43448                  20004889.4504
        52.2504         42.0004
  22483777.6524    1542712.65249   1185589.25447                  22483775.1854
        47.7504         31.5004
  22394223.4164   -1942316.56649  -1502186.90247                  22394219.3294
        44.2504         35.0004
  22938196.9254    2198468.37549   1692330.67647                  22938193.6394
        44.0004         28.0004
  20871778.0114     359634.53149    273214.48848                  20871773.6544
        51.2504         40.5004
 04  6 30 18 10 30.0000000  0  8G 3G 9G14G15G18G19G21G22
  21867256.1374     643444.17249    493529.93447                  21867254.5284
        49.5004         36.0004
  23471288.6004     -74771.43749    -60887.17246                  23471286.7304
        42.5004         23.0004
  20354302.6894   -1900192.73449  -1471171.74248                  20354300.0784
        49.7504         42.0004
  20005020.1874    -129674.18449   -103526.87548                  20005017.9174
        51.7504         42.0004
  22488374.3564    1566868.14549   1204411.70347                  22488371.4254
        47.0004         31.5004
  22389031.3804   -1969601.11749  -1523447.58647                  22389027.1334
        47.2504         34.5004
  22945045.3314    2234461.87949   1720377.55547                  22945042.7414
        43.2504         27.2504
  20872963.6274     365863.55149    278068.26248                  20872959.3754
        50.7504         40.7504
 04  6 30 18 10 45.0000000  0  8G 3G 9G14G15G18G19G21G22
  21869747.6904     656537.43849    503732.46947                  21869746.2924
        49.7504         36.0004
  23471827.2764     -71939.78949    -58680.71146                  23471825.8684
        42.5004         23.5004
  20349332.4234   -1926311.75449  -1491524.21948                  20349329.4444
        50.5004         42.5004
  20005167.7554    -128899.12549   -102922.94148                  20005165.7154
        51.5004         43.0004
  22492971.0804    1591026.34849   1223236.25447                  22492968.7164
        47.2504         31.5004
  22383861.5304   -1996768.07049  -1544616.63747                  22383857.4224
        47.2504         35.0004
  22951904.2124    2270503.46949   1748461.86747                  22951901.9564
        42.2504         27.7504
  20874153.5624     372117.53549    282941.49248                  20874149.1554
        50.2504         40.2504
 04  6 30 18 11  0.0000000  0  8G 3G 9G14G15G18G19G21G22
  21872258.5084     669729.91449    514012.30547                  21872256.7254
        49.0004         36.5004
  23472391.6504     -68976.41049    -56371.59846                  23472389.6314
        43.2504         24.2504
  20344384.1874   -1952315.90249  -1511787.19148                  20344381.4124
        50.2504         43.0004
  20005333.7774    -128027.07049   -102243.42248                  20005331.4414
        52.2504         42.5004
  22497569.4974    1615187.38749   1242063.02347                  22497566.7864
        47.5004         32.0004
  22378714.2504   -2023817.22749  -1565693.89847                  22378709.9614
        48.0004         35.2504
  22958771.4574    2306592.82849   1776583.41447                  22958769.5234
        44.2504         27.2504
  20875348.1704     378396.60949    287834.27348                  20875343.8754
        51.7504         40.5004
 04  6 30 18 11 15.0000000  0  8G 3G 9G14G15G18G19G21G22
  21874787.5634     683021.35249    524369.25447                  21874786.3244
        50.2504         36.0004
  23472980.3414     -65881.35549    -53959.86346                  23472979.2804
        43.2504         23.0004
  20339457.6674   -1978205.12149  -1531960.60948                  20339454.7314
        50.5004         42.5004
  20005518.3184    -127057.91049   -101488.23848                  20005515.9484
        52.5004         42.5004
  22502167.8204    1639351.13349   1260891.89547                  22502165.0644
        48.7504         32.7504
  22373588.9464   -2050748.35949  -1586679.18747                  22373585.6384
        47.5004         35.0004
  22965648.0474    2342730.08249   1804742.27047                  22965646.4944
        42.5004         26.7504
  20876547.9384     384700.53949    292746.42648                  20876543.7624
        51.2504         40.7504
 04  6 30 18 11 30.0000000  0  8G 3G 9G14G15G18G19G21G22
  21877335.2494     696409.98049    534801.94547                  21877334.0864
        49.2504         36.5004
  23473594.0764     -62656.08649    -51446.67646                  23473592.5644
        41.5004         23.5004
  20334552.7434   -2003980.87149  -1552045.60248                  20334549.7604
        51.0004         43.0004
  20005720.7974    -125993.22349   -100658.61748                  20005718.5484
        52.7504         42.5004
  22506766.1684    1663516.14549   1279721.77047                  22506763.8624
        48.0004         33.0004
  22368486.5904   -2077562.77349  -1607573.52747                  22368482.4794
        48.5004         34.0004
  22972533.6434    2378913.41849   1832937.06347                  22972531.3694
        44.0004         28.0004
  20877752.3774     391027.83649    297676.78148                  20877747.7114
        51.7504         41.0004
 04  6 30 18 11 45.0000000  0  8G 3G 9G14G15G18G19G21G22
  21879901.4424     709895.94549    545310.47347                  21879900.2404
        49.5004         35.5004
  23474232.6424     -59300.42249    -48831.87546                  23474231.8614
        42.0004         25.0004
  20329669.0594   -2029642.94549  -1572042.02048                  20329666.4584
        50.0004         42.7504
  20005941.8024    -124832.60949    -99754.25448                  20005939.3754
        52.2504         43.0004
  22511364.8204    1687682.64149   1298552.78547                  22511362.3574
        48.0004         33.0004
  22363406.3804   -2104260.11349  -1628376.65247                  22363402.1684
        47.2504         35.0004
  22979427.8364    2415142.70749   1861167.65647                  22979426.1574
        43.7504         27.0004
  20878960.9124     397378.73449    302625.52748                  20878956.3044
        51.2504         40.5004
 04  6 30 18 12  0.0000000  0  8G 3G 9G14G15G18G19G21G22
  21882486.3814     723479.52049    555895.06347                  21882485.1464
        48.5004         36.5004
  23474895.6004     -55813.80549    -46115.02746                  23474894.7674
        42.5004         25.5004
  20324807.6984   -2055190.58249  -1591949.26648                  20324805.0404
        50.7504         42.5004
  20006181.1604    -123575.36749    -98774.59048                  20006178.5924
        51.7504         42.7504
  22515963.9514    1711851.22749   1317385.42647                  22515961.6844
        47.5004         32.5004
  22358348.4314   -2130839.64549  -1649087.96947                  22358344.4154
        48.0004         34.5004
  22986331.2334    2451418.74249   1889434.64847                  22986329.4314
        43.2504         26.5004
  20880173.8584     403753.68849    307593.01648                  20880169.3874
        52.0004         40.7504
 04  6 30 18 12 15.0000000  0  8G 3G 9G14G15G18G19G21G22
  21885089.9814     737161.22749    566556.12147                  21885088.6034
        48.7504         36.0004
  23475585.3754     -52195.41449    -43295.52046                  23475583.5774
        43.7504         25.5004
  20319967.8614   -2080622.93749  -1611766.68448                  20319965.1604
        50.7504         42.2504
  20006438.9254    -122220.58249    -97718.91848                  20006436.5134
        52.2504         42.5004
  22520563.5284    1736022.57049   1336220.21947                  22520561.2094
        47.5004         32.5004
  22353313.5344   -2157300.32449  -1669706.68447                  22353309.0174
        48.0004         34.7504
  22993243.1654    2487742.25049   1917738.63747                  22993241.0504
        44.2504         26.7504
  20881391.7424     410153.48849    312579.87548                  20881387.2654
        51.0004         41.0004
 04  6 30 18 12 30.0000000  0  8G 3G 9G14G15G18G19G21G22
  21887712.0234     750941.31349    577293.83247                  21887710.9744
        49.5004         35.2504
  23476298.7194     -48444.93749    -40373.08647                  23476297.5924
        41.5004         25.7504
  20315150.7914   -2105939.60249  -1631493.96148                  20315147.7654
        50.7504         42.0004
  20006715.1244    -120767.69949    -96586.81248                  20006713.0504
        52.0004         42.2504
  22525163.2744    1760197.01249   1355057.42647                  22525161.1014
        47.5004         32.2504
  22348300.5304   -2183641.64149  -1690232.38747                  22348296.6734
        47.0004         35.5004
  23000164.9064    2524113.32449   1946079.71947                  23000162.5644
        44.0004         27.5004
  20882614.3174     416578.44149    317586.32048                  20882609.9524
        51.5004         40.7504
 04  6 30 18 12 45.0000000  0  8G 3G 9G14G15G18G19G21G22
  21890353.0104     764818.03549    588106.84847                  21890351.4374
        48.7504         36.2504
  23477036.8064     -44563.91449    -37348.91447                  23477035.8834
        43.7504         26.2504
  20310354.8094   -2131141.99249  -1651132.17648                  20310351.8214
        51.0004         42.0004
  20007010.0734    -119218.17249    -95379.39848                  20007007.8444
        52.2504         42.5004
  22529764.6834    1784372.98449   1373895.83247                  22529761.6074
        48.2504         33.0004
  22343310.5684   -2209865.03949  -1710666.19947                  22343306.4254
        47.7504         35.2504
  23007094.0354    2560530.28549   1974456.53547                  23007092.3444
        42.5004         27.0004
  20883841.1534     423026.94149    322611.12148                  20883837.1464
        51.5004         40.7504
 04  6 30 18 13  0.0000000  0  8G 3G 9G14G15G18G19G21G22
  21893012.0634     778792.48849    598996.02347                  21893010.6074
        49.2504         36.0004
  23477800.8424     -40550.98049    -34221.94547                  23477799.6184
        44.0004         26.5004
  20305580.7664   -2156228.57449  -1670680.16048                  20305577.9204
        50.0004         42.2504
  20007323.6914    -117570.55549    -94095.54748                  20007321.5794
        52.0004         43.0004
  22534365.7964    1808551.85949   1392736.49647                  22534362.8324
        48.2504         32.5004
  22338343.1504   -2235968.95749  -1731006.91047                  22338339.1674
        46.5004         35.5004
  23014034.1004    2596994.62549   2002870.24247                  23014031.6854
        42.5004         27.5004
  20885073.0634     429500.35949    327655.34048                  20885068.9614
        51.5004         40.5004
 04  6 30 18 13 15.0000000  0  8G 3G 9G14G15G18G19G21G22
  21895690.1454     792865.25049    609961.80547                  21895689.0064
        49.5004         35.7504
  23478589.1894     -36405.25049    -30991.50046                  23478588.6904
        42.2504         25.5004
  20300829.2024   -2181198.38749  -1690137.15248                  20300826.3374
        48.5004         42.2504
  20007655.8784    -115823.87549    -92734.50048                  20007653.6944
        52.0004         42.2504
  22538967.5144    1832734.49249   1411580.10547                  22538964.9424
        48.7504         32.5004
  22333398.3364   -2261952.25449  -1751253.64147                  22333394.5334
        44.0004         34.5004
  23020982.0044    2633506.73849   2031321.21947                  23020978.8154
        43.7504         27.2504
  20886309.8564     435999.50449    332719.60548                  20886305.6174
        51.0004         40.7504
 04  6 30 18 13 30.0000000  0  8G 3G 9G14G15G18G19G21G22
  21898386.5014     807034.81649    621003.01647                  21898385.0664
        49.2504         36.2504
  23479403.6464     -32127.95749    -27658.55147                  23479402.4634
        42.7504         28.0004
  20296099.7144   -2206052.73449  -1709504.17648                  20296096.5814
        49.5004         42.0004
  20008006.8994    -113979.30949    -91297.18448                  20008004.9684
        52.0004         42.7504
  22543569.5954    1856919.59449   1430425.61347                  22543567.1804
        47.2504         32.0004
  22328476.7564   -2287816.04749  -1771407.23047                  22328472.7654
        46.2504         35.2504
  23027938.2414    2670065.61749   2059808.65247                  23027935.3814
        42.0004         25.7504
  20887551.1764     442523.01649    337802.85948                  20887546.7424
        50.7504         40.7504
 04  6 30 18 13 45.0000000  0  8G 3G 9G14G15G18G19G21G22
  21901101.5494     821302.94549    632121.02047                  21901099.9534
        49.5004         35.7504
  23480242.5204     -27717.26249    -24221.65247                  23480242.0304
        42.7504         26.7504
  20291392.3424   -2230789.65649  -1728779.69948                  20291389.3404
        50.5004         41.7504
  20008377.0454    -112034.89849    -89782.06648                  20008374.9974
        52.0004         42.2504
  22548172.1954    1881109.12149   1449274.57047                  22548170.4374
        47.2504         32.0004
  22323578.2584   -2313558.24649  -1791466.08647                  22323574.0104
        47.5004         35.0004
  23034905.4954    2706672.84449   2088333.68847                  23034902.8654
        43.2504         27.0004
  20888797.7234     449072.76649    342906.54348                  20888793.1434
        51.0004         41.0004
 04  6 30 18 14  0.0000000  0  8G 3G 9G14G15G18G19G21G22
  21903835.6404     835669.05949    643315.37547                  21903833.7724
        49.5004         36.2504
  23481107.5514     -23173.53549    -20681.10246                  23481106.0084
        42.2504         25.2504
  20286707.5804   -2255409.25849  -1747963.80148                  20286704.1974
        49.7504         42.0004
  20008765.9064    -109990.72349    -88189.21148                  20008764.0514
        52.2504         42.0004
  22552776.7534    1905302.69149   1468126.68447                  22552774.2634
        47.2504         32.2504
  22318702.6554   -2339179.02049  -1811430.32047                  22318698.6554
        46.7504         35.2504
  23041880.7514    2743328.23049   2116896.27747                  23041878.2044
        42.5004         27.5004
  20890048.9524     455648.42649    348030.43448                  20890044.6284
        50.7504         40.5004
 04  6 30 18 14 15.0000000  0  8G 3G 9G14G15G18G19G21G22
  21906587.4394     850132.07849    654585.24647                  21906586.1034
        49.5004         36.5004
  23481996.8404     -18497.62949    -17037.54347                  23481996.0504
        41.5004         26.0004
  20282044.6064   -2279912.43449  -1767057.18048                  20282041.9024
        48.0004         42.0004
  20009173.9884    -107847.50849    -86519.18048                  20009171.9144
        52.0004         42.5004
  22557381.0344    1929499.39549   1486981.23447                  22557378.6884
        47.2504         32.2504
  22313850.4934   -2364679.11749  -1831300.52047                  22313846.3234
        45.2504         35.5004
  23048864.0884    2780030.70749   2145495.60947                  23048861.7234
        42.7504         25.7504
  20891305.2544     462248.96949    353173.71148                  20891300.7774
        50.7504         40.7504
 04  6 30 18 14 30.0000000  0  8G 3G 9G14G15G18G19G21G22
  21909358.5214     864691.77749    665930.45747                  21909356.7884
        50.0004         36.0004
  23482911.4954     -13689.71949    -13291.12546                  23482911.2314
        42.7504         25.2504
  20277403.7964   -2304299.21149  -1786059.86348                  20277400.8534
        47.0004         42.2504
  20009600.5084    -105605.31249    -84772.01648                  20009598.3464
        52.0004         42.5004
  22561986.2014    1953699.16049   1505838.17247                  22561983.3594
        47.5004         32.2504
  22309020.8974   -2390058.35949  -1851076.55947                  22309017.0244
        44.2504         35.0004
  23055856.9244    2816780.32449   2174131.63346                  23055854.4534
        41.7504         25.2504
  20892565.9494     468874.39549    358336.37948                  20892561.2294
        49.5004         40.5004
 04  6 30 18 14 45.0000000  0  8G 3G 9G14G15G18G19G21G22
  21912147.2704     879348.66449    677351.39147                  21912146.0164
        50.0004         36.0004
  23483852.7634      -8748.90249     -9441.14546                  23483851.9614
        41.2504         25.5004
  20272785.6494   -2328568.66849  -1804971.12148                  20272782.9554
        48.0004         42.5004
  20010046.0104    -103263.14149    -82946.94948                  20010044.4054
        51.7504         42.2504
  22566592.3494    1977902.84849   1524698.17647                  22566589.4054
        47.5004         32.0004
  22304214.7874   -2415315.76249  -1870757.64847                  22304210.3974
        47.0004         34.7504
  23062860.0564    2853577.69149   2202804.85547                  23062857.6864
        41.5004         28.2504
  20893831.6014     475525.60949    363519.13748                  20893827.3704
        49.2504         41.0004
 04  6 30 18 15  0.0000000  0  8G 3G 9G14G15G18G19G21G22
  21914954.9984     894103.36749    688848.55147                  21914953.8134
        49.5004         36.0004
  23484817.6964      -3674.53949     -5487.09447                  23484817.0214
        41.7504         26.5004
  20268189.8854   -2352720.00049  -1823790.34048                  20268187.0704
        48.2504         42.5004
  20010511.1934    -100820.23049    -81043.38748                  20010509.1494
        52.2504         42.0004
  22571198.8124    2002111.21149   1543561.82047                  22571195.9654
        47.2504         32.0004
  22299431.2784   -2440450.51249  -1890343.16447                  22299427.5054
        47.0004         34.7504
  23069871.5104    2890423.22349   2231515.62147                  23069869.6164
        42.5004         28.0004
  20895102.3054     482203.17249    368722.42648                  20895097.7744
        49.2504         40.5004
 04  6 30 18 15 15.0000000  0  8G 3G 9G14G15G18G19G21G22
  21917781.5644     908955.82849    700421.87947                  21917780.0584
        50.0004         36.0004
  23485809.6794       1533.58649     -1428.81646                  23485807.5934
        41.7504         25.0004
  20263616.3694   -2376753.00449  -1842517.35948                  20263613.2564
        48.5004         42.5004
  20010995.0594     -98276.39149    -79061.18448                  20010993.0924
        51.7504         42.7504
  22575806.2644    2026324.30949   1562429.17247                  22575804.1014
        47.2504         32.0004
  22294671.7544   -2465462.18449  -1909832.77747                  22294667.5714
        47.0004         34.5004
  23076891.6234    2927317.09849   2260264.05546                  23076890.3574
        42.5004         25.0004
  20896378.0894     488907.17249    373946.32048                  20896373.6914
        49.7504         40.7504
 04  6 30 18 15 30.0000000  0  8G 3G 9G14G15G18G19G21G22
  21920626.2704     923904.46149    712070.14847                  21920625.0284
        49.5004         36.0004
  23486825.0324       6874.14849      2732.66846                  23486824.0534
        42.5004         24.5004
  20259065.5884   -2400668.80149  -1861153.03948                  20259062.2724
        47.5004         42.5004
  20011498.1254     -95632.73049    -77001.19148                  20011496.1614
        52.0004         42.0004
  22580414.4644    2050541.05949   1581299.35247                  22580412.2454
        46.5004         32.0004
  22289935.9534   -2490351.93749  -1929227.39147                  22289931.6554
        47.2504         35.0004
  23083922.1274    2964257.82849   2289049.00046                  23083918.5524
        42.0004         24.0004
  20897658.5224     495636.50849    379189.94548                  20897653.9864
        48.2504         40.7504
 04  6 30 18 15 45.0000000  0  8G 3G 9G14G15G18G19G21G22
  21923489.2494     938949.07849    723793.21547                  21923487.8654
        49.2504         36.2504
  23487866.2254      12347.29749      6997.44946                  23487865.7284
        41.2504         24.7504
  20254536.7034   -2424467.16449  -1879697.21548                  20254533.7964
        46.0004         42.7504
  20012020.4274     -92889.00449    -74863.22348                  20012018.3844
        51.5004         42.5004
  22585023.5904    2074761.36749   1600172.28547                  22585021.4284
        46.5004         31.5004
  22285222.1794   -2515119.46149  -1948526.74647                  22285218.5244
        46.2504         35.2504
  23090961.1354    3001245.14149   2317870.27047                  23090957.0614
        43.2504         27.7504
  20898943.8854     502391.02049    384453.20748                  20898939.4564
        48.0004         40.5004
 04  6 30 18 16  0.0000000  0  8G 3G 9G14G15G18G19G21G22
  21926370.3014     954091.69549    735592.63747                  21926369.5184
        49.0004         35.2504
  23488933.7504      17955.12549     11367.18846                  23488933.1564
        41.7504         24.0004
  20250030.5014   -2448145.96149  -1898148.22348                  20250027.9004
        48.0004         42.2504
  20012562.1444     -90042.93749    -72645.52348                  20012560.1634
        51.2504         43.0004
  22589633.4944    2098987.44949   1619049.72747                  22589631.4124
        46.7504         31.0004
  22280533.2204   -2539762.45349  -1967729.07847                  22280529.1554
        46.5004         35.0004
  23098007.9804    3038281.70349   2346729.89547                  23098005.7034
        42.5004         27.2504
  20900234.4694     509172.86749    389737.76248                  20900230.0964
        49.7504         41.0004
 04  6 30 18 16 15.0000000  0  8G 3G 9G14G15G18G19G21G22
  21929270.7824     969332.05949    747468.23447                  21929269.4754
        49.2504         36.0004
  23490026.4104      23697.45349     15841.73047                  23490025.5664
        38.5004         26.0004
  20245547.7374   -2471705.14549  -1916506.02748                  20245544.6684
        48.0004         42.2504
  20013122.8214     -87094.40649    -70347.96548                  20013120.9344
        51.5004         43.0004
  22594244.5424    2123219.14549   1637931.55547                  22594242.3684
        47.2504         32.2504
  22275867.5514   -2564280.75449  -1986834.25047                  22275863.6274
        47.0004         35.2504
  23105064.8114    3075367.33649   2375627.70747                  23105062.6364
        40.0004         27.0004
  20901530.1644     515982.05149    395043.60948                  20901525.2844
        48.7504         41.0004
 04  6 30 18 16 30.0000000  0  8G 3G 9G14G15G18G19G21G22
  21932189.0414     984668.59849    759418.77347                  21932188.2084
        49.7504         35.2504
  23491144.1974      29573.12949     20420.17646                  23491143.2294
        38.2504         25.0004
  20241087.0034   -2495145.98849  -1934771.61748                  20241084.0294
        47.2504         42.2504
  20013703.3654     -84044.59049    -67971.48848                  20013701.2604
        52.0004         42.5004
  22598856.6094    2147455.23449   1656816.80547                  22598854.6284
        47.0004         31.2504
  22271224.9664   -2588675.55949  -2005843.18047                  22271221.0974
        46.7504         35.0004
  23112131.5784    3112500.56649   2404562.66446                  23112129.0164
        41.0004         25.2504
  20902830.9444     522817.27349    400369.75448                  20902826.2984
        49.0004         41.0004
 04  6 30 18 16 45.0000000  0  8G 3G 9G14G15G18G19G21G22
  21935126.2364    1000101.87149    771444.68847                  21935124.6684
        50.0004         35.2504
  23492288.5084      35582.90249     25103.11746                  23492287.4464
        38.0004         24.2504
  20236649.0504   -2518467.55949  -1952944.26648                  20236646.1704
        47.0004         42.0004
  20014303.1444     -80892.66449    -65515.45348                  20014301.1254
        51.7504         41.7504
  22603469.6934    2171696.53549   1675706.12147                  22603466.8644
        47.0004         31.7504
  22266606.6714   -2612945.91449  -2024755.14547                  22266602.6904
        42.5004         34.7504
  23119207.4294    3149681.93049   2433535.14547                  23119203.7684
        42.0004         25.7504
  20904136.9744     529679.23049    405716.72748                  20904132.3434
        49.2504         40.5004
 04  6 30 18 17  0.0000000  0  8G 3G 9G14G15G18G19G21G22
  21938082.0134    1015633.59049    783547.30547                  21938080.2284
        49.2504         35.5004
  23493457.5554      41728.57049     29891.93446                  23493456.6174
        38.0004         25.5004
  20232234.0224   -2541667.89149  -1971022.44148                  20232230.9864
        48.5004         42.5004
  20014923.0024     -77636.60549    -62978.27048                  20014920.2974
        52.0004         42.7504
  22608083.6644    2195944.96949   1694600.99247                  22608081.4064
        47.0004         30.5004
  22262012.1994   -2637089.77049  -2043568.53547                  22262008.3854
        45.7504         35.2504
  23126290.7414    3186913.05149   2462546.37546                  23126289.2304
        39.7504         24.7504
  20905448.0634     536569.86349    411086.04748                  20905443.6494
        49.2504         40.2504
 04  6 30 18 17 15.0000000  0  8G 3G 9G14G15G18G19G21G22
  21941056.5784    1031263.94549    795726.78947                  21941054.4834
        49.5004         35.2504
  23494652.9654      48010.60549     34787.01646                  23494652.0574
        37.7504         24.0004
  20227842.4484   -2564746.52049  -1989005.78948                  20227839.3934
        49.7504         42.0004
  20015562.5304     -74275.90649    -60359.55148                  20015560.1224
        52.0004         42.0004
  22612699.7134    2220200.83649   1713501.63747                  22612697.0474
        46.7504         29.7504
  22257441.5204   -2661106.39149  -2062282.78147                  22257438.2764
        46.0004         35.5004
  23133385.7424    3224194.50849   2491596.77747                  23133385.2424
        41.0004         25.7504
  20906764.4524     543489.44549    416477.92248                  20906760.2034
        49.5004         40.0004
 04  6 30 18 17 30.0000000  0  8G 3G 9G14G15G18G19G21G22
  21944048.6734    1046990.32049    807981.09847                  21944046.6604
        49.2504         35.5004
  23495874.4174      54426.46549     39786.39846                  23495872.9194
        38.7504         25.0004
  20223473.7984   -2587705.78149  -2006896.12148                  20223470.5254
        49.0004         42.5004
  20016221.8024     -70812.80549    -57661.04348                  20016219.1024
        52.7504         42.2504
  22617316.5704    2244461.81349   1732406.28147                  22617313.7154
        46.7504         30.5004
  22252895.6794   -2684998.06649  -2080899.67247                  22252891.8294
        46.2504         35.5004
  23140490.1874    3261523.82449   2520684.52047                  23140487.6514
        41.7504         28.0004
  20908086.4454     550435.60549    421890.51248                  20908081.9274
        49.5004         40.2504
 04  6 30 18 17 45.0000000  0  8G 3G 9G14G15G18G19G21G22
  21947059.8054    1062814.22749    820311.40647                  21947058.1764
        49.5004         35.5004
  23497120.6084      60977.99249     44891.47746                  23497120.0764
        40.2504         25.2504
  20219127.5604   -2610543.91849  -2024692.06648                  20219124.6444
        48.7504         42.5004
  20016900.3254     -67245.50849    -54881.34048                  20016898.0044
        51.5004         42.5004
  22621934.6334    2268729.80549   1751316.38347                  22621932.1564
        46.5004         31.2504
  22248373.2544   -2708763.00449  -2099417.80147                  22248369.3174
        47.0004         35.2504
  23147602.8774    3298902.77349   2549810.96946                  23147600.0944
        39.5004         25.2504
  20909413.6684     557410.06649    427325.16048                  20909409.4164
        50.0004         40.7504
 04  6 30 18 18  0.0000000  0  8G 3G 9G14G15G18G19G21G22
  21950089.5684    1078735.23049    832717.35947                  21950087.6314
        49.2504         35.2504
  23498393.2844      67664.78949     50101.95746                  23498391.9294
        40.2504         25.0004
  20214804.4834   -2633261.09449  -2042393.76648                  20214801.5614
        49.0004         42.0004
  20017599.0804     -63574.06649    -52020.48848                  20017596.5194
        51.7504         42.2504
  22626554.1694    2293004.48049   1770231.69947                  22626551.2774
        46.7504         31.5004
  22243875.0324   -2732401.32449  -2117837.27347                  22243871.0734
        46.7504         35.7504
  23154724.4114    3336331.10249   2578975.85946                  23154722.7694
        38.0004         24.5004
  20910746.4284     564412.62549    432781.68848                  20910741.6944
        49.2504         40.5004
 04  6 30 18 18 15.0000000  0  8G 3G 9G14G15G18G19G21G22
  21953137.9394    1094754.00849    845199.50447                  21953135.9544
        50.0004         35.5004
  23499692.4974      74487.78549     55418.56346                  23499690.8214
        41.5004         25.5004
  20210504.6394   -2655856.22349  -2060000.35548                  20210502.0694
        48.2504         42.5004
  20018317.4404     -59797.59449    -49077.78948                  20018315.4634
        51.5004         42.5004
  22631174.8234    2317286.62949   1789152.84047                  22631172.5304
        47.2504         30.7504
  22239401.3514   -2755911.87549  -2136157.18047                  22239397.2754
        45.5004         35.2504
  23161857.4634    3373809.21949   2608179.51247                  23161855.0794
        40.5004         26.2504
  20912084.3194     571444.09049    438260.74648                  20912080.0624
        48.7504         40.5004
 04  6 30 18 18 30.0000000  0  8G 3G 9G14G15G18G19G21G22
  21956204.6124    1110870.37949    857757.69947                  21956202.9004
        49.5004         36.0004
  23501016.4364      81447.02049     60841.35547                  23501015.0794
        41.7504         26.5004
  20206228.3384   -2678329.32449  -2077511.86348                  20206225.3634
        48.5004         42.2504
  20019056.3174     -55915.89849    -46053.09448                  20019054.1384
        52.0004         42.2504
  22635797.3004    2341576.54749   1808080.04347                  22635794.2094
        46.5004         30.7504
  22234951.3014   -2779294.46549  -2154377.37547                  22234947.4044
        46.5004         35.5004
  23168998.7694    3411337.12549   2637422.00847                  23168996.3994
        41.5004         26.7504
  20913427.9584     578504.46149    443762.32848                  20913423.2794
        50.7504         40.5004
 04  6 30 18 18 45.0000000  0  8G 3G 9G14G15G18G19G21G22
  21959290.3074    1127084.43449    870392.02347                  21959288.7224
        50.0004         36.0004
  23502366.6404      88542.75049     66370.47347                  23502365.5894
        40.7504         26.2504
  20201975.3624   -2700679.87549  -2094927.86748                  20201972.1604
        46.2504         42.2504
  20019815.2284     -51928.44949    -42946.00448                  20019812.8574
        51.5004         42.0004
  22640420.4784    2365874.51249   1827013.49647                  22640418.1044
        47.7504         31.5004
  22230526.4414   -2802548.48049  -2172497.39147                  22230522.2534
        46.0004         35.5004
  23176148.9344    3448915.44949   2666703.78946                  23176147.8884
        39.5004         24.5004
  20914776.9554     585594.19549    449286.79348                  20914772.3794
        48.2504         40.0004
 04  6 30 18 19  0.0000000  0  8G 3G 9G14G15G18G19G21G22
  21962393.9504    1143396.13349    883102.42247                  21962392.5384
        49.2504         35.5004
  23503742.6194      95775.11749     72006.09047                  23503741.6814
        40.2504         27.0004
  20197745.2214   -2722907.66049  -2112248.21548                  20197742.4104
        48.7504         42.7504
  20020594.1954     -47835.02749    -39756.34048                  20020592.0264
        52.0004         42.0004
  22645046.1974    2390180.66449   1845953.35947                  22645043.4124
        48.0004         30.7504
  22226125.7914   -2825673.64549  -2190516.98447                  22226122.1544
        46.0004         35.5004
  23183309.1224    3486543.64149   2696024.39546                  23183308.1504
        40.0004         25.2504
  20916131.7674     592713.43049    454834.24648                  20916127.3934
        49.5004         40.5004
 04  6 30 18 19 15.0000000  0  8G 3G 9G14G15G18G19G21G22
  21965517.0644    1159807.46149    895890.45747                  21965515.8684
        49.7504         36.0004
  23505145.7934     103146.42249     77749.96147                  23505144.1994
        40.7504         25.7504
  20193539.3094   -2745010.30549  -2129471.05548                  20193536.4324
        45.0004         42.7504
  20021393.5404     -43633.22749    -36482.20748                  20021391.6284
        51.7504         41.7504
  22649673.3824    2414497.19149   1864901.27347                  22649670.4934
        46.7504         30.2504
  22221750.3384   -2848667.52049  -2208434.30147                  22221746.4514
        46.5004         35.7504
  23190480.9504    3524224.15249   2725385.80547                  23190478.8344
        40.2504         26.0004
  20917492.5234     599864.29749    460406.34048                  20917488.2434
        46.7504         40.2504
 04  6 30 18 19 30.0000000  0  8G 3G 9G14G15G18G19G21G22
  22268451.1984    1176316.19149    908754.39147                  22268449.6254
        49.5004         36.0004
  23806366.6374     110655.14149     83600.87947                  23806365.6764
        41.0004         27.0004
  20489149.7524   -2766987.34049  -2146596.01248                  20489146.8924
        48.2504         42.7504
  20322005.6984     -39324.21549    -33124.53948                  20322004.1224
        52.0004         42.0004
  22954094.6064    2438821.56649   1883855.31347                  22954091.8124
        46.5004         31.5004
  22517192.1674   -2871529.43049  -2226248.77347                  22517188.4134
        45.5004         35.5004
  23497452.2114    3561953.71549   2754785.43847                  23497451.2844
        40.2504         26.2504
  21218651.6704     607045.28549    466001.90248                  21218647.3634
        50.5004         40.7504
 04  6 30 18 19 45.0000000  0  8G 3G 9G14G15G18G19G21G22
  22271610.9254    1192922.33649    921694.23047                  22271609.8534
        49.5004         35.0004
  23807821.4574     118300.31649     89558.15647                  23807820.5624
        39.5004         27.5004
  20484990.8404   -2788843.52749  -2163626.80148                  20484987.7934
        46.5004         42.7504
  20322846.4674     -34909.21949    -29684.28948                  20322844.3464
        52.0004         42.2504
  22958724.9064    2463155.20349   1902816.57447                  22958722.7564
        46.2504         30.7504
  22512866.4814   -2894264.23849  -2243964.19947                  22512862.0294
        42.7504         36.0004
  23504641.5464    3599734.88749   2784225.26646                  23504641.1014
        39.2504         25.5004
  21220023.4824     614255.47749    471620.23448                  21220019.1294
        49.5004         40.2504
 04  6 30 18 20  0.0000000  0  8G 3G 9G14G15G18G19G21G22
  22274789.4054    1209626.53549    934710.47747                  22274788.6494
        48.5004         35.2504
  23809302.1964     126083.40249     95622.87947                  23809301.7154
        38.0004         27.7504
  20480855.2624   -2810575.45349  -2180560.77348                  20480852.1344
        49.0004         42.5004
  20323706.5884     -30386.54349    -26160.12548                  20323704.7974
        51.5004         42.2504
  22963357.5704    2487498.43449   1921785.30947                  22963355.0254
        46.2504         31.0004
  22508564.5864   -2916868.29349  -2261577.75047                  22508560.5194
        46.0004         35.5004
  23511841.0754    3637567.46949   2813705.12946                  23511839.5714
        39.7504         25.5004
  21221401.4694     621496.41449    477262.52048                  21221397.2484
        49.0004         40.2504
 04  6 30 18 20 15.0000000  0  8G 3G 9G14G15G18G19G21G22
  22277986.9954    1226428.34849    947802.78547                  22277986.0984
        49.0004         35.7504
  23810810.3374     134004.14849    101794.86747                  23810808.9684
        38.2504         27.0004
  20476743.2584   -2832183.21149  -2197397.97748                  20476740.3674
        48.2504         42.5004
  20324587.7444     -25756.18449    -22552.05948                  20324585.9764
        50.7504         42.7504
  22967992.2054    2511851.03549   1940761.34847                  22967989.1534
        45.5004         30.7504
  22504287.9424   -2939341.61749  -2279089.43047                  22504284.2524
        46.2504         35.5004
  23519050.0844    3675450.74649   2843224.55947                  23519048.2554
        39.5004         26.2504
  21222785.3204     628767.87549    482928.57848                  21222780.6314
        49.0004         40.2504
 04  6 30 18 20 30.0000000  0  8G 3G 9G14G15G18G19G21G22
  22281203.1464    1243328.03549    960971.36347                  22281201.7844
        49.2504         35.5004
  23812343.5254     142062.84849    108074.37147                  23812342.4864
        38.2504         26.7504
  20472655.3304   -2853666.29349  -2214138.04348                  20472652.2304
        48.2504         42.0004
  20325489.5214     -21017.61749    -18859.67648                  20325487.6964
        52.5004         42.5004
  22972627.8254    2536213.46549   1959745.04747                  22972624.9254
        45.0004         31.0004
  22500036.6424   -2961683.54749  -2296498.71947                  22500032.6334
        46.5004         36.2504
  23526268.9334    3713385.07049   2872783.75446                  23526267.1004
        40.5004         24.7504
  21224174.8594     636070.23849    488618.73448                  21224170.5114
        49.2504         40.5004
 04  6 30 18 20 45.0000000  0  8G 3G 9G14G15G18G19G21G22
  22284436.7244    1260322.96549    974214.14847                  22284435.5234
        49.5004         34.5004
  23813903.3824     150257.20749    114459.57847                  23813901.7744
        38.2504         26.2504
  20468590.6404   -2875026.91449  -2230782.68048                  20468587.5034
        49.5004         42.2504
  20326411.2374     -16173.00449    -15084.66048                  20326409.3454
        51.7504         42.2504
  22977265.2704    2560583.47749   1978734.64547                  22977262.8464
        45.2504         31.5004
  22495809.5274   -2983896.35549  -2313807.40247                  22495805.9594
        46.2504         36.0004
  23533495.9344    3751368.55549   2902381.22346                  23533495.0044
        40.2504         24.5004
  21225569.9634     643401.23049    494331.18848                  21225565.3014
        49.2504         40.0004
 04  6 30 18 21  0.0000000  0  8G 3G 9G14G15G18G19G21G22
  22287689.3694    1277413.28149    987531.27347                  22287687.8944
        49.0004         35.2504
  23815487.8714     158587.62149    120950.79347                  23815486.8354
        38.5004         26.5004
  20464549.0564   -2896264.70349  -2247331.59848                  20464545.8724
        49.2504         42.2504
  20327353.6784     -11221.88349    -11226.64848                  20327351.4904
        51.5004         42.5004
  22981904.4114    2584961.46949   1997730.47747                  22981902.0074
        45.5004         31.2504
  22491607.2674   -3005979.34449  -2331014.92647                  22491603.5594
        46.5004         35.5004
  23540734.5874    3789401.20749   2932016.99646                  23540732.2534
        41.5004         25.0004
  21226970.4224     650761.29349    500066.29748                  21226966.1004
        49.5004         40.2504
 04  6 30 18 21 15.0000000  0  8G 3G 9G14G15G18G19G21G22
  22290959.8704    1294599.88749   1000923.41447                  22290958.3834
        49.0004         36.0004
  23817099.2694     167055.03549    127548.77347                  23817098.5934
        40.2504         25.7504
  20460531.2724   -2917378.43749  -2263783.85548                  20460528.1974
        49.0004         42.0004
  20328316.4314      -6163.18049     -7284.80948                  20328314.0054
        52.0004         42.7504
  22986545.1524    2609348.50849   2016733.34047                  22986542.8244
        45.2504         31.0004
  22487429.9704   -3027931.44549  -2348120.45347                  22487426.3184
        45.0004         35.5004
  23547981.3904    3827483.93049   2961691.80947                  23547978.7054
        41.0004         25.7504
  21228376.6554     658151.25049    505824.69548                  21228372.3594
        50.2504         40.0004
 04  6 30 18 21 30.0000000  0  8G 3G 9G14G15G18G19G21G22
  22294248.6274    1311881.71149   1014389.75447                  22294246.9574
        49.5004         34.7504
  23818736.5994     175658.55149    134252.78546                  23818735.8064
        40.5004         25.5004
  20456536.8864   -2938368.97349  -2280140.10948                  20456533.7374
        46.2504         42.2504
  20329299.4024       -997.66049     -3259.73048                  20329296.9724
        52.0004         42.2504
  22991187.2674    2633743.76249   2035742.60947                  22991184.3924
        44.7504         30.5004
  22483277.5624   -3049753.35249  -2365124.53947                  22483273.3014
        42.7504         36.0004
  23555237.3544    3865615.84449   2991404.95346                  23555235.0554
        41.2504         23.5004
  21229788.3954     665570.27049    511605.73848                  21229784.1644
        50.0004         40.5004
 04  6 30 18 21 45.0000000  0  8G 3G 9G14G15G18G19G21G22
  22297555.0544    1329257.93449   1027929.65647                  22297553.5204
        49.0004         34.7504
  23820399.1544     184397.54749    141062.39547                  23820399.0974
        38.7504         25.7504
  20452565.9584   -2959236.85549  -2296400.79348                  20452562.7374
        46.0004         42.5004
  20330302.4554       4274.25849       848.25448                  20330299.8924
        52.0004         42.0004
  22995830.6674    2658146.66849   2054757.83647                  22995828.3214
        45.2504         30.0004
  22479149.7334   -3071445.48049  -2382027.50847                  22479145.2594
        42.5004         35.7504
  23562503.2574    3903796.16049   3021155.80546                  23562500.6424
        41.0004         22.7504
  21231205.6414     673017.88349    517409.07448                  21231201.4344
        51.0004         40.2504
 04  6 30 18 22  0.0000000  0  8G 3G 9G14G15G18G19G21G22
  22300879.6314    1346728.66849   1041543.20747                  22300877.8514
        48.7504         34.7504
  23822088.0934     193272.23849    147977.72747                  23822087.6924
        39.2504         26.5004
  20448618.3814   -2979981.73049  -2312565.62948                  20448615.4324
        47.0004         42.0004
  20331326.1664       9652.96149      5039.44148                  20331323.6764
        52.0004         41.7504
  23000476.7224    2682557.40649   2073779.17647                  23000473.6274
        44.0004         30.7504
  22475046.6114   -3093007.33649  -2398828.94147                  22475042.3614
        43.0004         36.0004
  23569777.7834    3942025.31649   3050944.71146                  23569775.3304
        40.5004         24.0004
  21232628.2744     680494.35949    523234.89548                  21232624.0824
        50.2504         40.5004
 04  6 30 18 22 15.0000000  0  8G 3G 9G14G15G18G19G21G22
  22304221.8264    1364293.05149   1055229.72347                  22304220.4054
        49.0004         34.7504
  23823803.1664     202281.89849    154998.22747                  23823802.3084
        40.5004         26.0004
  20444693.8564   -3000604.25049  -2328635.11748                  20444690.8804
        48.5004         42.5004
  20332370.0604      15137.88349      9313.39148                  20332367.6174
        51.5004         42.5004
  23005123.3014    2706975.41449   2092806.18447                  23005120.2734
        44.7504         30.2504
  22470968.2784   -3114439.40249  -2415529.25447                  22470963.7944
        46.7504         35.5004
  23577061.7314    3980302.21949   3080770.82846                  23577059.3374
        41.2504         25.2504
  21234056.5464     687999.00449    529082.66048                  21234052.0844
        51.0004         40.5004
 04  6 30 18 22 30.0000000  0  8G 3G 9G14G15G18G19G21G22
  22307581.9554    1381950.43449   1068988.71547                  22307580.8724
        49.0004         35.2504
  23825542.6234     211426.26249    162123.69146                  23825542.2874
        40.7504         25.5004
  20440792.6494   -3021104.59449  -2344609.41048                  20440789.9384
        46.7504         42.5004
  20333433.6924      20728.78149     13669.93448                  20333431.0884
        52.0004         42.5004
  23009770.7434    2731400.45749   2111838.68047                  23009767.8334
        43.5004         29.7504
  22466914.5104   -3135741.92249  -2432128.62947                  22466910.5214
        43.7504         36.2504
  23584354.3534    4018626.39149   3110633.78146                  23584351.7284
        41.7504         22.7504
  21235490.1004     695531.52349    534952.14848                  21235485.7434
        51.0004         40.5004
 04  6 30 18 22 45.0000000  0  8G 3G 9G14G15G18G19G21G22
  22310960.2094    1399703.05149   1082821.91447                  22310959.3014
        48.5004         35.0004
  23827309.5284     220707.72849    169356.04347                  23827308.1394
        40.7504         26.2504
  20436915.1434   -3041480.26649  -2360486.55548                  20436912.5824
        48.5004         42.5004
  20334518.3574      26428.27749     18111.08648                  20334516.2754
        51.2504         42.0004
  23014420.5054    2755835.03149   2130878.59447                  23014417.6514
        43.2504         29.5004
  22462885.9644   -3156912.36749  -2448625.07447                  22462881.6444
        46.0004         36.0004
  23591656.5404    4057000.40649   3140535.57846                  23591653.8854
        41.0004         22.2504
  21236929.1784     703094.35549    540845.25848                  21236925.0224
        51.0004         40.5004
 04  6 30 18 23  0.0000000  0  8G 3G 9G14G15G18G19G21G22
  22314356.2374    1417549.93449   1096728.55947                  22314355.4354
        48.0004         35.0004
  23829100.8364     230125.61749    176694.61347                  23829100.3164
        41.2504         25.7504
  20433061.9654   -3061731.88349  -2376267.02748                  20433058.9674
        50.0004         41.7504
  20335623.6144      32235.78549     22636.41448                  20335621.2064
        52.7504         42.2504
  23019071.9264    2780278.53549   2149925.45747                  23019069.4644
        44.0004         30.5004
  22458882.2844   -3177951.14849  -2465018.93047                  22458878.2714
        47.0004         36.2504
  23598968.5304    4095423.42249   3170475.55146                  23598965.6154
        40.5004         23.0004
  21238373.7454     710686.82449    546761.46548                  21238369.3584
        51.0004         40.0004
 04  6 30 18 23 15.0000000  0  8G 3G 9G14G15G18G19G21G22
  22317770.5874    1435490.14849   1110707.93447                  22317769.3804
        49.2504         35.2504
  23830918.8314     239679.09849    184138.87946                  23830918.2354
        39.2504         24.5004
  20429231.4904   -3081860.19549  -2391951.42648                  20429228.2054
        47.5004         42.2504
  20336749.0274      38150.61749     27245.36348                  20336746.8394
        51.7504         42.0004
  23023724.5624    2804730.03949   2168978.55947                  23023722.1554
        42.5004         30.5004
  22454903.7534   -3198858.98849  -2481310.75047                  22454899.4194
        45.5004         36.2504
  23606289.7344    4133894.98049   3200453.34446                  23606287.5214
        40.5004         23.5004
  21239824.0554     718308.22349    552700.20748                  21239819.9344
        51.2504         40.5004
 04  6 30 18 23 30.0000000  0  8G 3G 9G14G15G18G19G21G22
  22321201.6484    1453522.49249   1124759.10547                  22321200.6534
        48.7504         34.7504
  23832762.7274     249367.03149    191687.89146                  23832761.8414
        39.7504         23.0004
  20425424.2044   -3101866.18749  -2407540.50848                  20425421.0454
        46.7504         42.7504
  20337895.0684      44171.85249     31937.22348                  20337892.5134
        52.2504         42.2504
  23028379.1904    2829188.59849   2188037.14547                  23028377.0804
        44.2504         30.0004
  22450949.7074   -3219636.70349  -2497501.17247                  22450945.5394
        42.5004         36.2504
  23613619.1344    4172413.43449   3230467.68046                  23613617.1084
        40.2504         21.7504
  21241279.7014     725957.48049    558660.65248                  21241275.2734
        51.0004         40.0004
 04  6 30 18 23 45.0000000  0  8G 3G 9G14G15G18G19G21G22
  22324651.3494    1471649.29749   1138883.86747                  22324649.9534
        49.2504         35.5004
  23834632.3424     259191.95349    199343.66846                  23834631.8604
        38.2504         24.5004
  20421641.0934   -3121747.10549  -2423032.12548                  20421637.6404
        49.0004         42.5004
  20339061.5394      50302.30549     36714.19148                  20339059.3374
        52.0004         42.2504
  23033035.2494    2853656.94149   2207103.37547                  23033032.5884
        44.2504         29.2504
  22447020.6854   -3240281.48449  -2513588.02047                  22447016.8464
        46.2504         36.0004
  23620958.5504    4210981.60549   3260520.76646                  23620956.3464
        41.0004         22.2504
  21242741.0684     733637.12949    564644.79348                  21242736.6284
        51.0004         39.7504
 04  6 30 18 24  0.0000000  0  8G 3G 9G14G15G18G19G21G22
  22328118.2084    1489869.11749   1153081.11347                  22328117.0304
        49.0004         35.2504
  23836528.1614     269152.64549    207105.22346                  23836527.0314
        38.5004         23.5004
  20417881.8924   -3141504.15649  -2438427.22348                  20417878.2734
        50.0004         42.5004
  20340248.6314      56540.76249     41575.32448                  20340246.5424
        52.0004         42.0004
  23037692.9854    2878133.85249   2226176.28547                  23037690.4294
        44.5004         29.0004
  22443117.6934   -3260794.49249  -2529572.17647                  22443113.5144
        47.7504         36.0004
  23628307.6104    4249598.34449   3290611.67646                  23628304.7224
        42.0004         24.7504
  21244208.2804     741346.06349    570651.74648                  21244203.7014
        51.0004         39.5004
 04  6 30 18 24 15.0000000  0  8G 3G 9G14G15G18G19G21G22
  22331603.0854    1508183.20349   1167351.81347                  22331601.9904
        48.7504         35.0004
  23838449.0394     279250.44549    214973.63746                  23838448.7704
        37.0004         22.7504
  20414145.6794   -3161135.71949  -2453724.53948                  20414142.8024
        47.5004         42.5004
  20341456.3784      62888.84049     46521.87548                  20341454.4954
        51.5004         42.2504
  23042352.9534    2902621.00449   2245257.15647                  23042350.3844
        43.5004         29.7504
  22439239.7014   -3281174.05149  -2545452.34847                  22439235.2854
        45.0004         36.2504
  23635665.6614    4288264.66449   3320741.26246                  23635662.7474
        42.0004         24.0004
  21245681.0234     749085.75049    576682.66448                  21245676.5894
        51.0004         40.0004
 04  6 30 18 24 30.0000000  0  8G 3G 9G14G15G18G19G21G22
  22335106.0864    1526590.43049   1181695.09447                  22335105.1884
        49.2504         34.5004
  23840396.1854     289484.51649    222948.20346                  23840396.2664
        38.0004         22.2504
  20410433.7614   -3180642.71549  -2468924.79348                  20410430.5764
        47.2504         42.0004
  20342685.5284      69345.66049     51553.15248                  20342683.0344
        52.0004         42.2504
  23047014.4974    2927117.60249   2264345.40647                  23047011.4524
        44.5004         28.5004
  22435386.3554   -3301420.91449  -2561229.12947                  22435382.7014
        43.2504         35.7504
  23643032.9274    4326979.69949   3350908.77346                  23643030.2724
        41.5004         24.2504
  21247159.5284     756855.28949    582736.85248                  21247155.2024
        51.0004         40.2504
 04  6 30 18 24 45.0000000  0  8G 3G 9G14G15G18G19G21G22
  22338626.9204    1545091.32049   1196111.35247                  22338625.3714
        49.2504         34.2504
  23842369.9644     299855.47749    231029.47346                  23842369.9784
        37.5004         22.5004
  20406745.4054   -3200024.45749  -2484027.44948                  20406742.6744
        48.7504         42.5004
  20343934.7114      75912.06349     56669.82448                  20343932.5704
        49.7504         42.5004
  23051677.3804    2951624.10549   2283441.35547                  23051674.9754
        43.7504         28.7504
  22431559.3484   -3321534.19549  -2576901.81247                  22431555.1424
        45.2504         36.2504
  23650409.4404    4365743.89549   3381114.59846                  23650407.0224
        41.7504         24.5004
  21248643.6044     764655.35949    588814.82448                  21248639.1844
        48.5004         40.0004
 04  6 30 18 25  0.0000000  0  8G 3G 9G14G15G18G19G21G22
  22342164.8844    1563685.34049   1210600.18847                  22342163.5364
        49.2504         34.2504
  23844369.6604     310363.09049    239217.17246                  23844369.2894
        37.5004         22.5004
  20403081.0694   -3219281.16449  -2499032.67248                  20403078.2554
        49.7504         42.7504
  20345205.0374      82587.93449     61871.80548                  20345203.1964
        51.7504         42.5004
  23056343.3964    2976140.35249   2302544.90647                  23056341.0964
        42.7504         29.7504
  22427756.9884   -3341514.07049  -2592470.55147                  22427753.0574
        46.5004         36.0004
  23657795.6374    4404557.38349   3411358.85546                  23657793.0284
        42.7504         25.2504
  21250133.8244     772485.83649    594916.48048                  21250129.6064
        50.5004         40.7504
 04  6 30 18 25 15.0000000  0  8G 3G 9G14G15G18G19G21G22
  22345721.2804    1582372.50049   1225161.59047                  22345719.5234
        48.7504         34.5004
  23846396.0244     321007.59849    247511.56346                  23846395.0214
        38.7504         22.5004
  20399440.5224   -3238412.40649  -2513940.12548                  20399437.5064
        50.0004         42.0004
  20346496.6304      89373.62149     67159.34448                  20346494.3784
        52.0004         41.7504
  23061010.2224    3000666.62549   2321656.27047                  23061008.2024
        44.0004         29.5004
  22423980.6444   -3361360.09849  -2607934.98447                  22423976.5004
        46.7504         36.0004
  23665190.9264    4443419.87149   3441641.28546                  23665188.9954
        41.5004         24.2504
  21251629.8224     780346.86349    601041.94948                  21251625.3344
        51.2504         40.5004
 04  6 30 18 25 30.0000000  0  8G 3G 9G14G15G18G19G21G22
  22349295.1414    1601153.25049   1239795.92247                  22349293.3364
        48.7504         34.2504
  23848446.5304     331789.47349    255913.03146                  23848446.2854
        38.7504         22.7504
  20395824.1234   -3257417.52049  -2528749.30148                  20395821.1864
        50.0004         42.0004
  20347808.8894      96269.82449     72533.00048                  20347806.9404
        52.7504         43.2504
  23065679.8414    3025203.70749   2340776.04747                  23065677.0874
        44.5004         29.7504
  22420229.4864   -3381071.50849  -2623294.52347                  22420225.4904
        47.0004         35.2504
  23672594.9444    4482332.22349   3471962.55146                  23672593.9354
        42.2504         24.0004
  21253131.6154     788239.15649    607191.78148                  21253127.3764
        51.0004         40.5004
 04  6 30 18 25 45.0000000  0  8G 3G 9G14G15G18G19G21G22
  22352886.8704    1620027.31349   1254502.96947                  22352885.3784
        49.5004         35.0004
  23850524.6724     342708.64149    264421.44546                  23850524.2864
        38.5004         23.0004
  20392231.2664   -3276296.50049  -2543460.19148                  20392228.4434
        50.0004         42.2504
  20349142.0554     103276.58249     77992.80948                  20349140.1854
        52.5004         42.0004
  23070350.9414    3049751.48849   2359904.17247                  23070348.3934
        44.5004         30.2504
  22416504.1334   -3400648.24649  -2638549.12947                  22416500.4474
        48.0004         36.0004
  23680009.5754    4521294.18449   3502322.46946                  23680008.1364
        41.5004         24.0004
  21254639.5704     796162.75049    613366.00048                  21254635.4054
        51.2504         40.2504
 04  6 30 18 26  0.0000000  0  8G 3G 9G14G15G18G19G21G22
  22356495.9234    1638993.18049   1269281.55547                  22356494.4984
        48.5004         34.7504
  23852628.6714     353763.77749    273035.82846                  23852627.6804
        39.2504         22.5004
  20388662.4944   -3295050.58249  -2558073.76248                  20388659.6144
        50.2504         42.2504
  20350496.2564     110392.80149     83537.90248                  20350494.0514
        52.0004         42.0004
  23075024.3444    3074308.96549   2379039.84447                  23075021.6774
        45.5004         30.0004
  22412804.1154   -3420091.46949  -2653699.69147                  22412800.2104
        47.5004         36.0004
  23687432.7744    4560304.38749   3532719.99646                  23687431.2814
        41.7504         23.0004
  21256153.0514     804116.35549    619563.61348                  21256148.7884
        51.2504         40.2504
 04  6 30 18 26 15.0000000  0  8G 3G 9G14G15G18G19G21G22
  22360122.5414    1658051.42249   1284132.10547                  22360121.1924
        49.0004         34.7504
  23854758.9344     364955.59049    281756.69946                  23854757.9144
        40.0004         22.2504
  20385117.9514   -3313678.87149  -2572589.30548                  20385114.7584
        50.2504         42.7504
  20351871.5534     117619.53949     89169.12548                  20351869.3344
        52.0004         42.5004
  23079699.2414    3098876.80149   2398183.59447                  23079696.9024
        45.5004         29.5004
  22409130.0724   -3439400.18449  -2668745.44147                  22409126.1354
        48.0004         36.0004
  23694865.3604    4599363.50849   3563155.62946                  23694863.9764
        42.2504         21.7504
  21257672.5374     812100.77049    625785.22748                  21257668.1374
        50.5004         40.5004
 04  6 30 18 26 30.0000000  0  8G 3G 9G14G15G18G19G21G22
  22363767.4594    1677202.54349   1299055.05147                  22363765.6984
        48.2504         34.5004
  23856914.0544     376284.83649    290584.68046                  23856913.9604
        38.7504         22.7504
  20381596.9034   -3332180.60249  -2587006.23848                  20381593.9474
        50.5004         42.2504
  20353268.1724     124957.48449     94887.00448                  20353265.7304
        52.0004         42.2504
  23084376.7494    3123455.75049   2417335.99647                  23084374.7124
        44.7504         29.0004
  22405481.8944   -3458573.48849  -2683685.68747                  22405477.5984
        48.5004         35.5004
  23702307.4244    4638472.06649   3593629.80546                  23702305.9344
        41.5004         24.0004
  21259198.0404     820116.71549    632031.41048                  21259193.1284
        51.7504         39.7504
 04  6 30 18 26 45.0000000  0  8G 3G 9G14G15G18G19G21G22
  22367428.7144    1696445.70349   1314049.70347                  22367427.4824
        49.0004         35.2504
  23859097.0554     387750.67649    299519.14846                  23859095.6614
        38.7504         22.5004
  20378100.1414   -3350556.39149  -2601325.02348                  20378097.0054
        50.0004         42.0004
  20354685.0064     132406.11349    100691.11748                  20354682.9904
        51.7504         42.5004
  23089055.1924    3148045.34049   2436496.70747                  23089053.2584
        46.0004         29.7504
  22401858.8324   -3477611.87149  -2698520.79347                  22401854.7704
        47.7504         36.2504
  23709758.9864    4677629.72349   3624142.19946                  23709757.7314
        42.0004         23.5004
  21260729.2424     828163.65249    638301.75448                  21260724.5154
        51.0004         40.0004
 04  6 30 18 27  0.0000000  0  8G 3G 9G14G15G18G19G21G22
  22371108.2804    1715781.89849   1329116.84447                  22371107.6764
        48.2504         34.5004
  23861304.1324     399354.44149    308560.96546                  23861303.6864
        38.0004         25.0004
  20374627.4454   -3368805.03949  -2615544.75048                  20374624.2634
        50.0004         42.0004
  20356124.0494     139966.72749    106582.50048                  20356121.6904
        52.0004         42.2504
  23093737.1654    3172646.73049   2455666.60247                  23093734.7264
        45.0004         29.0004
  22398261.6044   -3496514.07449  -2713249.78147                  22398258.0014
        48.0004         35.5004
  23717220.5914    4716837.30149   3654693.52047                  23717219.1204
        42.2504         25.7504
  21262266.4704     836242.52049    644596.96548                  21262262.2154
        51.5004         40.0004
 04  6 30 18 27 15.0000000  0  8G 3G 9G14G15G18G19G21G22
  22374805.3704    1735209.90249   1344255.53947                  22374804.5744
        49.0004         34.5004
  23863538.9904     411094.94949    317709.40246                  23863538.0614
        39.5004         24.0004
  20371178.8204   -3386927.40249  -2629666.07048                  20371175.7404
        49.7504         42.2504
  20357584.1134     147638.43049    112560.44148                  20357581.7114
        52.5004         42.5004
  23098420.5524    3197258.98449   2474844.96947                  23098418.1964
        45.5004         28.0004
  22394690.2984   -3515280.92649  -2727873.30147                  22394686.5864
        48.0004         36.0004
  23724690.5274    4756094.00449   3685283.11746                  23724689.4374
        42.0004         22.5004
  21263809.8844     844352.57049    650916.47748                  21263805.4664
        51.5004         40.2504
 04  6 30 18 27 30.0000000  0  8G 3G 9G14G15G18G19G21G22
  22378520.0504    1754729.78149   1359465.81647                  22378518.7554
        48.2504         34.5004
  23865798.4814     422972.50049    326964.62146                  23865797.8744
        38.7504         23.0004
  20367754.4884   -3404923.13749  -2643688.72348                  20367751.3584
        49.2504         42.2504
  20359065.0164     155421.68849    118625.30948                  20359062.8984
        52.0004         43.0004
  23103106.6164    3221882.51649   2494032.11747                  23103103.7324
        45.2504         29.0004
  22391145.1614   -3533912.06649  -2742391.07447                  22391141.6954
        46.7504         36.0004
  23732170.0724    4795399.94949   3715911.08646                  23732168.3394
        42.5004         22.5004
  21265359.2464     852494.22349    657260.62148                  21265354.5644
        51.5004         40.5004
 04  6 30 18 27 45.0000000  0  8G 3G 9G14G15G18G19G21G22
  22382252.0804    1774341.37949   1374747.56647                  22382251.1384
        48.7504         34.7504
  23868085.3824     434987.11349    336326.63746                  23868084.7734
        39.5004         24.7504
  20364354.1424   -3422792.10549  -2657612.59048                  20364351.2404
        47.5004         42.0004
  20360567.6334     163316.63349    124777.19948                  20360565.4344
        52.5004         42.5004
  23107794.5754    3246517.52349   2513228.21547                  23107791.4784
        45.5004         29.5004
  22387625.6834   -3552406.99649  -2756802.70347                  22387621.8314
        44.5004         36.0004
  23739658.8404    4834755.08249   3746577.36346                  23739657.4594
        41.5004         23.5004
  21266914.2144     860667.48449    663629.39148                  21266910.1674
        51.7504         40.0004
 04  6 30 18 28  0.0000000  0  8G 3G 9G14G15G18G19G21G22
  22386001.2964    1794043.75849   1390100.05947                  22386000.0054
        49.0004         33.7504
  23870397.6614     447137.94549    345794.80546                  23870397.0404
        39.0004         22.7504
  20360977.6724   -3440535.06249  -2671438.27048                  20360974.7594
        47.2504         43.0004
  20362090.5954     171322.62949    131015.63748                  20362088.8544
        52.5004         42.5004
  23112484.3534    3271163.17249   2532432.60547                  23112481.5564
        45.5004         28.5004
  22384131.9854   -3570766.42249  -2771108.75447                  22384127.7724
        44.0004         36.0004
  23747157.4524    4874158.54749   3777281.32846                  23747156.0474
        41.7504         25.0004
  21268475.5974     868871.70749    670022.28148                  21268471.0794
        51.2504         39.5004
 04  6 30 18 28 15.0000000  0  8G 3G 9G14G15G18G19G21G22
  22389767.8194    1813838.42249   1405524.44947                  22389767.2494
        48.2504         34.0004
  23872735.8524     459426.78149    355370.50046                  23872734.9074
        38.2504         22.5004
  20357625.8164   -3458150.19149  -2685164.34848                  20357622.8804
        49.5004         43.0004
  20363635.9054     179441.50849    137342.02048                  20363633.8164
        51.7504         42.0004
  23117176.7054    3295821.28149   2551646.68847                  23117173.9094
        46.7504         29.0004
  22380664.2444   -3588988.64549  -2785307.89147                  22380660.2664
        46.5004         36.0004
  23754664.8834    4913612.09449   3808024.30146                  23754664.3634
        42.0004         24.0004
  21270042.9524     877108.55549    676440.59048                  21270038.6784
        51.2504         40.2504
 04  6 30 18 28 30.0000000  0  8G 3G 9G14G15G18G19G21G22
  22393551.7594    1833725.35549   1421020.74647                  22393551.3464
        48.0004         34.0004
  23875100.7244     471853.59949    365053.77346                  23875099.5174
        38.0004         23.0004
  20354298.0374   -3475637.20349  -2698790.58648                  20354294.5634
        50.2504         42.5004
  20365202.5524     187673.53949    143756.58248                  20365200.2824
        52.5004         42.2504
  23121871.5954    3320492.24649   2570870.79347                  23121868.7914
        45.7504         30.2504
  22377223.1484   -3607073.23849  -2799399.78147                  22377219.1284
        48.2504         36.2504
  23762182.4994    4953115.69149   3838806.26246                  23762180.9064
        40.2504         22.7504
  21271616.2664     885378.30949    682884.54748                  21271612.1544
        52.0004         39.7504
 04  6 30 18 28 45.0000000  0  8G 3G 9G14G15G18G19G21G22
  22397353.4264    1853701.07449   1436586.23447                  22397352.6284
        48.2504         35.0004
  23877490.9704     484415.28149    374842.01646                  23877490.6064
        40.5004         24.2504
  20350994.2084   -3492999.30949  -2712319.50048                  20350990.7994
        50.2504         42.2504
  20366789.9744     196015.59849    150256.88348                  20366787.6794
        52.2504         42.0004
  23126567.7924    3345172.69949   2590102.30147                  23126565.0374
        46.5004         30.5004
  22373807.1244   -3625023.27349  -2813386.82047                  22373802.9234
        48.0004         35.7504
  23769708.7154    4992666.03949   3869624.67246                  23769707.5094
        41.5004         23.7504
  21273195.9914     893677.76249    689351.64848                  21273191.4754
        52.0004         40.5004
 04  6 30 18 29  0.0000000  0  8G 3G 9G14G15G18G19G21G22
  22401171.4914    1873766.69149   1452221.76247                  22401170.8004
        48.0004         34.5004
  23879907.4884     497112.92249    384736.26646                  23879906.9714
        39.0004         24.0004
  20347713.9804   -3510235.19549  -2725750.05948                  20347711.0844
        50.0004         42.2504
  20368398.3874     204469.03149    156843.97348                  20368396.3734
        52.0004         42.2504
  23131266.2664    3369864.03549   2609342.28547                  23131263.7494
        46.0004         29.5004
  22370417.3664   -3642837.39849  -2827267.96147                  22370413.2744
        47.7504         36.0004
  23777244.4254    5032264.44549   3900480.52047                  23777242.4504
        41.7504         25.7504
  21274781.2704     902008.15249    695842.85248                  21274777.0254
        51.7504         40.2504
 04  6 30 18 29 15.0000000  0  8G 3G 9G14G15G18G19G21G22
  22405007.1514    1893923.29349   1467928.17647                  22405006.1854
        48.5004         33.7504
  23882350.2294     509947.91049    394737.52746                  23882349.6094
        40.0004         24.7504
  20344458.7584   -3527343.44549  -2739081.16048                  20344455.5264
        50.0004         42.2504
  20370029.0694     213035.39849    163519.05148                  20370026.7124
        51.7504         42.7504
  23135967.4904    3394567.67249   2628591.85947                  23135964.6874
        45.7504         29.0004
  22367053.3614   -3660514.05549  -2841041.98447                  22367049.5654
        48.2504         36.5004
  23784788.8044    5071912.18049   3931374.78946                  23784787.9864
        41.2504         23.0004
  21276372.7804     910371.04749    702359.38748                  21276368.2314
        51.7504         40.0004
 04  6 30 18 29 30.0000000  0  8G 3G 9G14G15G18G19G21G22
  22408860.4154    1914170.10249   1483704.89847                  22408859.1834
        48.7504         34.5004
  23884818.6034     522919.56349    404845.29347                  23884817.7494
        40.5004         25.7504
  20341226.9214   -3544324.59449  -2752313.21948                  20341224.0854
        48.2504         42.2504
  20371680.5354     221714.23449    170281.77048                  20371678.1284
        51.5004         43.0004
  23140670.5194    3419283.09449   2647850.61747                  23140667.4364
        45.5004         28.5004
  22363715.4004   -3678053.65249  -2854709.20747                  22363711.9574
        46.0004         35.5004
  23792343.1254    5111608.50849   3962306.93046                  23792341.5604
        42.0004         23.0004
  21277970.2774     918765.80149    708900.74648                  21277965.6264
        52.0004         39.5004
 04  6 30 18 29 45.0000000  0  8G 3G 9G14G15G18G19G21G22
  22412730.7264    1934507.78549   1499552.42247                  22412729.1254
        48.5004         34.2504
  23887313.1954     536028.70749    415060.17647                  23887311.8654
        40.5004         26.2504
  20338020.1224   -3561177.73449  -2765445.53148                  20338017.0674
        46.0004         42.0004
  20373353.5234     230506.47349    177132.85948                  20373351.1944
        51.2504         42.0004
  23145376.0774    3444011.32449   2667119.35547                  23145373.5284
        44.5004         28.7504
  22360404.6864   -3695455.30949  -2868268.93747                  22360400.7804
        43.5004         35.0004
  23799906.7904    5151354.27049   3993277.60546                  23799905.0444
        40.5004         24.0004
  21279573.8054     927193.32849    715467.64848                  21279569.6574
        51.5004         39.7504
 04  6 30 18 30  0.0000000  0  8G 3G 9G14G15G18G19G21G22
  22416617.6514    1954935.39149   1515470.02347                  22416616.6284
        48.2504         34.7504
  23889834.2164     549274.59049    425381.63347                  23889833.0144
        40.5004         26.2504
  20334837.6284   -3577903.45349  -2778478.56248                  20334834.3814
        47.0004         42.5004
  20375047.7994     239411.60549    184071.91848                  20375045.6024
        52.5004         42.0004
  23150084.3024    3468751.75849   2686397.59047                  23150081.6954
        44.0004         28.7504
  22357118.9924   -3712719.42649  -2881721.50047                  22357115.3934
        44.0004         35.7504
  23807479.4284    5191148.68049   4024286.18046                  23807477.4664
        42.2504         25.0004
  21281183.5674     935652.98049    722059.57848                  21281179.1984
        51.5004         39.7504
 04  6 30 18 30 15.0000000  0  8G 3G 9G14G15G18G19G21G22
  22420522.8074    1975454.75049   1531459.11747                  22420520.9974
        48.5004         34.7504
  23892380.7844     562659.13349    435811.13747                  23892379.9624
        42.0004         26.2504
  20331679.5044   -3594499.63349  -2791410.64548                  20331676.0374
        48.5004         42.5004
  20376764.3124     248431.71149    191100.56648                  20376762.0854
        52.0004         42.2504
  23154795.1934    3493506.48049   2705686.96547                  23154792.4084
        44.2504         29.7504
  22353860.3794   -3729843.82849  -2895065.18747                  22353856.9244
        45.7504         36.5004
  23815061.6164    5230993.81349   4055334.28946                  23815059.3444
        41.0004         22.5004
  21282800.0334     944146.98849    728678.28148                  21282795.5364
        51.7504         40.0004
 04  6 30 18 30 30.0000000  0  8G 3G 9G14G15G18G19G21G22
  22424444.7554    1996066.49249   1547520.19947                  22424443.2754
        48.7504         34.2504
  23894954.2184     576183.06649    446349.26247                  23894953.4164
        41.5004         26.0004
  20328546.2264   -3610965.45349  -2804241.16448                  20328542.8134
        50.0004         42.5004
  20378503.0064     257567.66449    198219.48048                  20378500.7044
        51.0004         42.2504
  23159508.4574    3518276.38349   2724988.18447                  23159505.9284
        43.0004         28.2504
  22350628.7084   -3746827.57449  -2908299.28147                  22350624.9134
        47.0004         35.5004
  23822653.7974    5270890.43849   4086422.50846                  23822651.5544
        41.5004         22.5004
  21284422.9354     952675.98049    735324.24248                  21284418.6244
        50.7504         40.5004
 04  6 30 18 30 45.0000000  0  8G 3G 9G14G15G18G19G21G22
  22428384.5964    2016770.76249   1563653.37147                  22428383.4794
        48.5004         33.5004
  23897554.3744     589846.69949    456996.22747                  23897552.8524
        42.0004         26.0004
  20325437.4894   -3627300.54749  -2816969.80148                  20325434.4634
        50.2504         41.5004
  20380263.7344     266819.96949    205429.07048                  20380261.4554
        51.2504         43.0004
  23164224.8584    3543061.87949   2744301.53547                  23164222.8634
        43.0004         29.5004
  22347423.5674   -3763670.25849  -2921423.44947                  22347420.1084
        48.0004         35.7504
  23830255.7664    5310838.65249   4117550.93046                  23830253.5864
        41.2504         22.2504
  21286052.5714     961240.43049    741997.82448                  21286048.4114
        51.0004         40.2504
 04  6 30 18 31  0.0000000  0  8G 3G 9G14G15G18G19G21G22
  22432341.9994    2037565.87949   1579857.34447                  22432340.7154
        47.5004         34.2504
  23900180.7384     603648.69149    467751.01647                  23900179.2114
        41.7504         26.2504
  20322353.6204   -3643506.18749  -2829597.56648                  20322350.8454
        50.0004         42.0004
  20382045.7974     276187.34049    212728.31648                  20382043.9374
        52.0004         42.2504
  23168944.1184    3567861.69149   2763626.05147                  23168942.2074
        42.5004         29.0004
  22344244.8884   -3780373.13749  -2934438.68747                  22344241.0074
        48.2504         36.0004
  23837866.9544    5350837.11749   4148718.52746                  23837864.7904
        42.0004         22.5004
  21287688.9814     969839.07449    748698.06348                  21287684.7214
        51.0004         40.0004
 04  6 30 18 31 15.0000000  0  8G 3G 9G14G15G18G19G21G22
  22436316.6604    2058452.95349   1596132.97747                  22436315.3644
        48.2504         34.2504
  23902833.9114     617590.29749    478614.59446                  23902832.1704
        42.5004         24.2504
  20319294.8304   -3659581.02749  -2842123.41448                  20319291.6384
        50.0004         42.5004
  20383850.9224     285671.21949    220118.33648                  20383848.5494
        51.2504         42.2504
  23173666.5414    3592677.20349   2782962.78147                  23173664.1944
        42.5004         28.5004
  22341093.6304   -3796934.78949  -2947343.87547                  22341089.3444
        48.2504         35.5004
  23845488.8924    5390887.09449   4179926.25046                  23845486.1434
        41.5004         22.5004
  21289332.2264     978473.34049    755426.05148                  21289327.9914
        51.0004         40.2504
 04  6 30 18 31 30.0000000  0  8G 3G 9G14G15G18G19G21G22
  22440308.8584    2079430.58249   1612479.16047                  22440306.9184
        48.5004         33.5004
  23905513.4834     631670.18849    489585.90646                  23905512.0464
        42.0004         25.5004
  20316260.3664   -3675526.19549  -2854548.21148                  20316257.1854
        49.7504         42.5004
  20385677.2714     295270.41049    227598.21948                  20385675.2034
        50.7504         42.5004
  23178391.4324    3617507.21949   2802310.82847                  23178389.8264
        42.7504         29.0004
  22337968.4374   -3813356.21149  -2960139.78947                  22337964.4174
        48.2504         36.0004
  23853119.2594    5430987.16049   4211173.00446                  23853117.7134
        40.2504         22.7504
  21290981.8024     987141.97349    762180.82048                  21290977.8024
        51.5004         40.0004
 04  6 30 18 31 45.0000000  0  9G 3G 9G14G15G18G19G21G22G25
  22444317.8074    2100498.89149   1628896.00447                  22444316.6214
        49.0004         34.2504
  23908218.4844     645888.60549    500665.18846                  23908217.5414
        40.7504         23.0004
  20313250.8924   -3691341.39549  -2866871.74648                  20313247.7434
        48.2504         42.2504
  20387526.3924     304985.44549    235168.36348                  20387524.2714
        50.0004         42.0004
  23183119.3504    3642352.19149   2821670.52347                  23183117.4324
        40.2504         29.2504
  22334870.6254   -3829636.94549  -2972826.08247                  22334867.0434
        46.0004         36.5004
  23860759.7644    5471137.78149   4242459.14846                  23860757.7584
        39.2504         22.2504
  21292637.8344     995845.21549    768962.55948                  21292633.6204
        51.7504         39.7504
  24526864.2854     -14873.55159
        39.5004
 04  6 30 18 32  0.0000000  0  9G 3G 9G14G15G18G19G21G22G25
  22448344.0624    2121658.36349   1645383.88747                  22448342.9594
        48.2504         34.2504
  23910951.9104     660246.18049    511852.88346                  23910950.4084
        41.7504         23.0004
  20310266.3024   -3707025.88749  -2879093.42248                  20310262.9514
        46.7504         42.0004
  20389397.1794     314817.10249    242829.38748                  20389394.9824
        51.0004         42.0004
  23187849.9664    3667212.81649   2841042.42247                  23187847.8714
        42.7504         28.5004
  22331799.3204   -3845776.26649  -2985402.17647                  22331795.6054
        44.0004         36.2504
  23868409.8974    5511339.43849   4273785.06346                  23868407.3534
        40.7504         22.2504
  21294300.9044    1004583.86749    775771.89548                  21294296.4454
        51.7504         40.0004
  24515691.0024     -73585.32049    -52477.41856                  24515692.4534
        38.7504         20.0004
 04  6 30 18 32 15.0000000  0  9G 3G 9G14G15G18G19G21G22G25
  22452388.2374    2142909.42649   1661943.14547                  22452386.8484
        48.5004         34.2504
  23913709.6094     674743.61749    523149.58246                  23913708.5514
        40.5004         23.5004
  20307306.3934   -3722578.98449  -2891212.71548                  20307303.6184
        45.7504         42.0004
  20391290.5734     324766.17249    250581.89848                  20391288.0904
        49.2504         42.2504
  23192584.2534    3692089.98849   2860427.22747                  23192581.9934
        41.7504         28.0004
  22328755.3054   -3861773.33649  -2997867.43047                  22328751.1184
        43.2504         36.0004
  23876069.5044    5551592.84049   4305151.34046                  23876067.4854
        40.5004         21.7504
  21295970.4844    1013358.73449    782609.44548                  21295966.2934
        48.5004         39.7504
  24504516.5344    -132310.69949    -98237.39146                  24504517.3444
        39.0004         20.5004
 04  6 30 18 32 30.0000000  0  9G 3G 9G14G15G18G19G21G22G25
  22456448.8784    2164248.93849   1678571.32047                  22456447.8854
        47.7504         34.0004
  23916493.2774     689377.83249    534552.86746                  23916493.3934
        40.5004         22.7504
  20304371.4984   -3738003.52049  -2903231.83648                  20304368.2314
        47.2504         42.0004
  20393205.7444     334829.70349    258423.60548                  20393203.1374
        50.7504         41.7504
  23197320.7894    3716980.78949   2879822.63347                  23197318.1084
        42.5004         29.0004
  22325737.2314   -3877630.97349  -3010224.03547                  22325733.7894
        44.7504         35.5004
  23883739.4604    5591894.77049   4336555.38346                  23883737.4494
        40.7504         22.5004
  21297646.7984    1022166.95749    789472.98048                  21297642.5134
        50.5004         39.5004
  24493338.6674    -191052.20749   -144009.94146                  24493339.0254
        39.5004         18.2504
 04  6 30 18 32 45.0000000  0  9G 3G 9G14G15G18G19G21G22G25
  22460526.4784    2185675.99249   1695267.71147                  22460525.6464
        48.2504         33.7504
  23919305.8004     704148.05149    546062.10246                  23919304.0264
        40.5004         24.0004
  20301460.4734   -3753300.18749  -2915151.31648                  20301457.4844
        48.5004         42.7504
  20395142.2144     345007.09449    266354.03148                  20395139.8754
        51.0004         42.5004
  23202059.7554    3741884.51649   2899228.13747                  23202057.2874
        41.5004         29.2504
  22322746.3624   -3893349.67649  -3022472.38347                  22322742.7074
        46.5004         36.0004
  23891417.3644    5632244.47349   4367996.66846                  23891415.3844
        40.0004         23.0004
  21299329.2244    1031007.71949    796361.88348                  21299325.0004
        51.2504         40.0004
  24482156.0604    -249810.23849   -189795.39846                  24482156.9814
        39.5004         18.2504
 04  6 30 18 33  0.0000000  0  9G 3G 9G14G15G18G19G21G22G25
  22464620.0044    2207189.58649   1712031.52747                  22464619.2554
        48.0004         33.7504
  23922142.0064     719053.40649    557676.65246                  23922140.3784
        41.0004         22.2504
  20298573.8464   -3768469.70349  -2926971.71548                  20298570.8424
        50.2504         42.0004
  20397100.3194     355297.72749    274372.69948                  20397098.3284
        51.7504         42.2504
  23206801.1794    3766800.60249   2918643.23847                  23206799.1754
        42.7504         28.5004
  22319781.4494   -3908930.12549  -3034612.98447                  22319777.9384
        47.7504         36.0004
  23899104.4824    5672641.19149   4399474.60546                  23899102.8094
        40.0004         21.0004
  21301017.4574    1039880.40649    803275.66048                  21301013.4364
        51.5004         39.7504
  24470971.8134    -308585.11349   -235593.94146                  24470972.8284
        38.7504         17.5004
 04  6 30 18 33 15.0000000  0  9G 3G 9G14G15G18G19G21G22G25
  22468730.8674    2228788.83249   1728862.09447                  22468729.3414
        48.5004         33.5004
  23925002.6484     734093.09449    569395.89146                  23925001.4584
        40.0004         21.7504
  20295711.2784   -3783512.77749  -2938693.58648                  20295708.1034
        49.2504         42.2504
  20399079.9844     365701.02049    282479.15248                  20399078.3064
        51.2504         42.0004
  23211544.1554    3791728.28149   2938067.38347                  23211542.8834
        42.2504         28.7504
  22316842.7164   -3924372.98449  -3046646.38747                  22316839.1904
        47.7504         35.5004
  23906800.1474    5713084.15249   4430988.55146                  23906799.0884
        39.7504         21.2504
  21302711.7774    1048784.34049    810213.77748                  21302707.6834
        51.2504         40.0004
  24459783.6594    -367377.12149   -281405.81646                  24459784.6964
        39.0004         18.5004
 04  6 30 18 33 30.0000000  0  9G 3G 9G14G15G18G19G21G22G25
  22472857.1274    2250473.18049   1745758.96947                  22472855.6894
        47.5004         34.0004
  23927890.3604     749266.69549    581219.47346                  23927888.7844
        41.5004         21.0004
  20292872.4434   -3798429.54349  -2950317.03548                  20292869.4384
        49.0004         42.5004
  20401081.1994     376216.81649    290673.27048                  20401079.2784
        51.0004         41.2504
  23216290.4204    3816667.44149   2957500.47347                  23216288.3854
        41.0004         28.5004
  22313930.2994   -3939678.44549  -3058572.72347                  22313926.3144
        47.5004         34.7504
  23914505.6414    5753573.00849   4462538.27346                  23914503.5694
        40.2504         22.0004
  21304412.0334    1057719.30549    817176.08248                  21304407.9014
        51.5004         39.7504
  24448592.8434    -426185.98049   -327230.87146                  24448593.6464
        38.0004         20.5004
 04  6 30 18 33 45.0000000  0  9G 3G 9G14G15G18G19G21G22G25
  22476999.5794    2272241.95749   1762721.63747                  22476998.6914
        48.7504         33.7504
  23930802.8154     764573.88749    593147.14546                  23930802.6154
        40.0004         22.2504
  20290058.1494   -3813220.38349  -2961842.36748                  20290054.6954
        49.5004         42.5004
  20403103.4934     386844.91849    298954.89548                  20403101.5824
        51.0004         41.7504
  23221038.3404    3841617.77349   2976942.25447                  23221036.9534
        42.2504         29.5004
  22311043.7034   -3954846.65649  -3070392.10947                  22311040.1444
        47.5004         35.0004
  23922219.3384    5794107.26649   4494123.38746                  23922217.3184
        38.0004         22.7504
  21306118.1384    1066685.02049    824162.34848                  21306113.9314
        51.7504         39.5004
  24437399.0044    -485011.63749   -373069.02746                  24437400.0304
        39.0004         19.5004
 04  6 30 18 34  0.0000000  0  9G 3G 9G14G15G18G19G21G22G25
  22481157.8834    2294094.63749   1779749.67247                  22481156.7094
        48.2504         33.0004
  23933742.5084     780014.19149    605178.50846                  23933740.5224
        41.5004         23.0004
  20287267.3064   -3827885.59449  -2973269.79748                  20287264.2414
        49.2504         42.7504
  20405147.2274     397585.05149    307323.82448                  20405144.9814
        52.0004         42.2504
  23225788.9604    3866579.04349   2996392.58647                  23225786.6994
        42.7504         29.2504
  22308183.4454   -3969877.81249  -3082104.69947                  22308179.3074
        47.5004         35.2504
  23929941.4344    5834686.55949   4525743.57046                  23929940.1444
        40.7504         22.5004
  21307830.2434    1075681.28949    831172.41848                  21307826.1934
        51.2504         39.7504
  24426201.2324    -543853.99249   -418920.14146                  24426202.3424
        38.0004         18.2504
 04  6 30 18 34 15.0000000  0  9G 3G 9G14G15G18G19G21G22G25
  22485331.6724    2316029.44549   1796841.70747                  22485330.8344
        48.0004         34.0004
  23936706.2054     795585.91449    617312.32046                  23936704.0434
        43.2504         22.2504
  20284500.3284   -3842426.86349  -2984600.65248                  20284497.0334
        49.2504         42.0004
  20407212.1944     408435.67649    315778.84448                  20407209.8384
        51.7504         42.2504
  23230540.6104    3891549.64149   3015850.16847                  23230538.5284
        43.0004         29.2504
  22305348.5754   -3984773.44549  -3093711.67647                  22305345.1904
        47.7504         36.0004
  23937670.5584    5875309.61349   4557397.85246                  23937670.5054
        38.5004         21.2504
  21309547.5454    1084706.46949    838205.01648                  21309543.5534
        51.0004         39.7504
  24415000.9254    -602714.23449   -464785.23046                  24415001.6434
        37.0004         19.5004
 04  6 30 18 34 30.0000000  0  9G 3G 9G14G15G18G19G21G22G25
  22489521.5734    2338046.58649   1813997.89847                  22489520.6024
        48.0004         33.5004
  23939694.0284     811289.50049    629548.88746                  23939692.3864
        40.5004         22.5004
  20281756.8644   -3856843.57049  -2995834.45348                  20281753.7874
        49.5004         42.2504
  20409297.9164     419397.33249    324320.38348                  20409296.1984
        51.5004         41.5004
  23235293.6344    3916530.21949   3035315.53547                  23235291.9444
        44.2504         29.2504
  22302540.5604   -3999532.95349  -3105212.59847                  22302536.6764
        47.5004         36.0004
  23945409.5504    5915976.39849   4589086.17246                  23945409.0724
        36.7504         20.0004
  21311270.6634    1093760.98049    845260.46948                  21311266.3364
        51.0004         39.7504
  24403797.4164    -661591.60049   -510663.69146                  24403797.6454
        39.2504         19.2504
 04  6 30 18 34 45.0000000  0  9G 3G 9G14G15G18G19G21G22G25
  22493727.1894    2360145.48049   1831217.79347                  22493725.7324
        48.0004         33.2504
  23942706.7024     827124.65249    641887.95346                  23942705.5934
        42.0004         23.0004
  20279037.0314   -3871135.86349  -3006971.30148                  20279033.8134
        49.2504         42.5004
  20411405.0954     430469.83649    332948.29348                  20411402.9864
        51.5004         42.0004
  23240049.2394    3941520.57849   3054788.52347                  23240047.6544
        44.2504         29.5004
  22299757.3724   -4014156.45349  -3116607.53547                  22299753.7284
        47.7504         36.0004
  23953156.9614    5956686.54749   4620808.32046                  23953155.8354
        38.7504         20.5004
  21312999.1384    1102844.78549    852338.75448                  21312995.1354
        51.0004         39.5004
  24392590.0114    -720485.88749   -556555.26646                  24392590.8664
        38.5004         21.2504
 04  6 30 18 35  0.0000000  0  9G 3G 9G14G15G18G19G21G22G25
  22497948.3754    2382327.72349   1848502.63747                  22497946.6864
        48.0004         34.0004
  23945746.0174     843092.94949    654330.78546                  23945743.5284
        41.7504         22.2504
  20276341.3054   -3885302.03549  -3018009.87148                  20276338.3234
        49.7504         42.0004
  20413533.6894     441655.06649    341664.05548                  20413531.4474
        52.0004         42.5004
  23244807.4714    3966522.55549   3074270.57447                  23244805.0464
        42.7504         29.0004
  22297001.6264   -4028642.11749  -3127895.07047                  22296997.2304
        47.5004         36.0004
  23960912.3524    5997441.64149   4652565.53546                  23960910.5754
        40.2504         21.0004
  21314733.8304    1111959.57849    859441.18048                  21314729.9504
        50.7504         39.5004
  24381379.7194    -779394.82849   -602458.28146                  24381380.6104
        40.2504         21.0004
 04  6 30 18 35 15.0000000  0  9G 3G 9G14G15G18G19G21G22G25
  22502184.9624    2404592.96949   1865852.16047                  22502184.2074
        47.5004         33.0004
  23948810.3764     859194.16049    666877.16446                  23948807.8144
        44.7504         23.0004
  20273669.8124   -3899342.24649  -3028950.29748                  20273666.4244
        49.7504         42.2504
  20415683.6874     452952.89849    350467.54748                  20415681.5984
        52.0004         42.2504
  23249566.9844    3991536.03949   3093761.57847                  23249564.7094
        42.2504         28.7504
  22294270.7124   -4042990.05549  -3139075.27747                  22294266.9584
        48.0004         36.0004
  23968675.8994    6038241.57049   4684357.65646                  23968675.0194
        40.2504         21.7504
  21316474.2164    1121105.27049    866567.68848                  21316470.1794
        51.0004         39.5004
  24370166.9664    -838318.19149   -648372.53146                  24370167.9094
        39.2504         21.0004
 04  6 30 18 35 30.0000000  0  9G 3G 9G14G15G18G19G21G22G25
  22506437.8944    2426939.95349   1883265.36747                  22506436.3634
        48.0004         33.0004
  23951898.7674     875427.10249    679526.20346                  23951897.0094
        42.5004         23.0004
  20271021.5854   -3913257.59849  -3039793.42248                  20271018.4844
        49.5004         42.5004
  20417854.8724     464362.43849    359358.09448                  20417852.8574
        52.0004         42.0004
  23254328.6374    4016560.16049   3113260.86347                  23254326.3784
        44.0004         27.5004
  22291566.0944   -4057201.27749  -3150148.96547                  22291562.6964
        48.5004         35.5004
  23976448.6634    6079085.40649   4716183.94146                  23976447.4824
        38.0004         21.0004
  21318220.1914    1130280.96149    873717.57448                  21318216.3314
        51.2504         40.0004
  24358951.5734    -897256.48049   -694298.43446                  24358952.6554
        40.0004         22.2504
 04  6 30 18 35 45.0000000  0  9G 3G 9G14G15G18G19G21G22G25
  22510705.9964    2449369.83649   1900743.17247                  22510704.8974
        48.2504         33.5004
  23955013.8854     891793.18849    692278.99246                  23955011.3994
        43.0004         23.0004
  20268397.4944   -3927046.64849  -3050538.14148                  20268394.2454
        49.5004         42.5004
  20420047.3174     475885.06649    368336.74648                  20420045.4314
        52.0004         42.0004
  23259093.2934    4041596.18449   3132769.42647                  23259090.8054
        44.0004         29.0004
  22288888.6034   -4071274.09449  -3161114.80147                  22288884.3664
        48.0004         36.0004
  23984229.8364    6119974.27749   4748045.31646                  23984228.8904
        38.5004         22.2504
  21319972.1764    1139487.97749    880891.85948                  21319968.0374
        51.0004         40.0004
  24347733.2184    -956207.88349   -740234.53146                  24347734.1284
        39.0004         22.0004
 04  6 30 18 36  0.0000000  0  9G 3G 9G14G15G18G19G21G22G25
  22514989.7364    2471880.45349   1918283.90247                  22514988.4804
        48.0004         33.0004
  23958152.0924     908290.37149    705133.93046                  23958151.6464
        41.7504         23.0004
  20265797.4764   -3940711.08249  -3061185.75048                  20265794.2774
        49.7504         43.0004
  20422261.3824     487519.02349    377402.16448                  20422258.8904
        52.5004         41.7504
  23263859.9574    4066642.40249   3152285.95347                  23263857.0714
        44.7504         29.7504
  22286236.3394   -4085210.39149  -3171974.25847                  22286232.5024
        48.2504         35.2504
  23992019.2894    6160905.97749   4779940.06646                  23992017.6044
        39.0004         21.7504
  21321729.9804    1148724.49249    888089.14147                  21321725.6024
        51.2504         39.2504
  24336512.0384   -1015173.90649   -786182.03146                  24336513.2694
        37.2504         21.7504
 04  6 30 18 36 15.0000000  0  9G 3G 9G14G15G18G19G21G22G25
  22519288.9694    2494472.82849   1935888.33247                  22519287.8324
        48.0004         33.5004
  23961317.4754     924919.73049    718091.85546                  23961315.9744
        43.5004         24.0004
  20263221.1014   -3954249.72349  -3071735.34048                  20263217.7454
        50.0004         42.5004
  20424496.7004     499265.59049    386555.31348                  20424494.5944
        52.0004         41.7504
  23268627.8704    4091700.04349   3171811.36747                  23268625.8374
        42.5004         29.5004
  22283610.7504   -4099008.81649  -3182726.27347                  22283606.8084
        48.0004         36.2504
  23999816.6014    6201881.98749   4811869.41446                  23999814.9684
        40.7504         22.0004
  21323493.7504    1157991.80549    895310.41047                  21323489.2044
        50.5004         39.2504
  24325288.4284   -1074153.06249   -832139.74646                  24325289.3944
        38.2504         21.5004
 04  6 30 18 36 30.0000000  0  9G 3G 9G14G15G18G19G21G22G25
  22523603.9374    2517147.97349   1953557.25047                  22523602.5324
        47.2504         34.0004
  23964506.1284     941682.39849    731153.65646                  23964505.7864
        41.0004         22.2504
  20260668.8594   -3967661.55949  -3082186.11748                  20260665.8304
        50.0004         42.7504
  20426753.5794     511125.98449    395797.16048                  20426751.4654
        52.5004         41.2504
  23273398.8694    4116770.32849   3191346.62547                  23273397.0414
        44.2504         29.0004
  22281011.5564   -4112668.11749  -3193369.89147                  22281007.4294
        47.2504         35.7504
  24007622.9684    6242903.43849   4843834.13746                  24007621.1944
        41.7504         23.0004
  21325263.1264    1167291.07449    902556.59047                  21325258.9274
        51.0004         39.0004
  24314063.2604   -1133143.61749   -878106.37146                  24314064.3134
        39.5004         20.5004
 04  6 30 18 36 45.0000000  0  9G 3G 9G14G15G18G19G21G22G25
  22527934.1054    2539904.34449   1971289.47347                  22527933.0294
        48.0004         33.2504
  23967720.8934     958576.97349    744318.25446                  23967720.2154
        41.2504         23.5004
  20258140.4834   -3980947.76249  -3092539.00448                  20258137.7154
        50.2504         42.0004
  20429031.8744     523099.02349    405126.78948                  20429029.7474
        51.2504         41.2504
  23278171.7954    4141852.16449   3210890.87947                  23278169.5264
        44.0004         29.5004
  22278438.3884   -4126189.58649  -3203906.10947                  22278434.4784
        48.7504         35.5004
  24015436.6684    6283968.97349   4875833.19546                  24015435.6384
        37.7504         22.2504
  21327038.3334    1176621.16849    909826.78147                  21327034.2344
        50.2504         39.2504
  24302835.8454   -1192146.48049   -924082.57046                  24302835.7194
        39.2504         22.0004
 04  6 30 18 37  0.0000000  0  9G 3G 9G14G15G18G19G21G22G25
  22532280.1444    2562742.73449   1989085.60547                  22532278.8234
        47.5004         33.5004
  23970961.2694     975604.57049    757586.49246                  23970960.7474
        39.2504         22.5004
  20255636.3154   -3994107.20749  -3102793.11348                  20255633.3284
        49.7504         41.7504
  20431331.7254     535185.93049    414545.14848                  20431329.9894
        51.7504         42.0004
  23282947.3674    4166946.74249   3230445.08647                  23282944.7664
        44.2504         29.5004
  22275891.6124   -4139571.94949  -3214333.93047                  22275888.1464
        48.2504         35.7504
  24023259.6574    6325079.28949   4907867.12146                  24023259.5164
        38.7504         22.2504
  21328820.1294    1185983.25049    917121.90248                  21328815.8954
        51.0004         39.5004
  24291605.0684   -1251159.99249   -970067.06246                  24291606.0124
        38.5004         21.7504
 04  6 30 18 37 15.0000000  0  9G 3G 9G14G15G18G19G21G22G25
  22536641.1284    2585661.93449   2006944.70347                  22536640.3764
        47.5004         33.2504
  23974227.8414     992763.93849    770957.39846                  23974226.3754
        41.2504         23.0004
  20253156.1334   -4007140.80949  -3112949.16448                  20253153.2944
        49.5004         42.5004
  20433653.5194     547385.77349    424051.51248                  20433651.6384
        51.7504         41.0004
  23287724.4354    4192053.19149   3250008.53547                  23287722.1834
        44.0004         29.0004
  22273371.7184   -4152816.05549  -3224654.01247                  22273367.5464
        48.7504         36.0004
  24031091.5734    6366233.36749   4939935.16046                  24031090.7484
        41.0004         23.2504
  21330607.8574    1195376.34049    924441.18447                  21330603.2174
        51.0004         39.2504
  24280372.8194   -1310184.69949  -1016060.26246                  24280374.1554
        39.0004         22.0004
 04  6 30 18 37 30.0000000  0  9G 3G 9G14G15G18G19G21G22G25
  22541018.1914    2608661.93049   2024866.75847                  22541017.2294
        47.7504         33.2504
  23977518.0314    1010055.30549    784431.16446                  23977516.8464
        41.2504         23.0004
  20250700.1144   -4020048.40649  -3123007.02748                  20250696.7184
        50.7504         42.0004
  20435996.8804     559698.81649    433646.07848                  20435994.8484
        52.2504         41.5004
  23292503.8544    4217171.83649   3269581.48847                  23292501.9734
        43.0004         29.5004
  22270877.9224   -4165921.67249  -3234866.18047                  22270874.0244
        48.5004         35.7504
  24038932.1174    6407431.44949   4972037.49246                  24038930.6924
        42.7504         23.0004
  21332400.7694    1204800.66849    931784.80948                  21332396.7614
        51.0004         40.0004
  24269138.8634   -1369220.12549  -1062061.78146                  24269140.0874
        40.5004         22.5004
 04  6 30 18 37 45.0000000  0  9G 3G 9G14G15G18G19G21G22G25
  22545410.3694    2631743.10949   2042852.07447                  22545409.4444
        47.2504         33.5004
  23980833.9674    1027479.23449    798008.23846                  23980832.3654
        40.5004         22.7504
  20248268.0744   -4032829.19949  -3132966.08248                  20248265.0294
        50.2504         42.7504
  20438361.6214     572125.82849    443329.46148                  20438359.7894
        51.2504         41.7504
  23297286.8474    4242303.32849   3289164.44947                  23297284.2964
        42.5004         28.5004
  22268410.3894   -4178887.96549  -3244969.79347                  22268406.2664
        48.5004         36.0004
  24046779.7874    6448674.21549   5004174.65646                  24046778.9404
        42.5004         23.7504
  21334200.2704    1214257.03949    939153.39848                  21334196.4284
        50.2504         39.5004
  24257902.7704   -1428265.11749  -1108070.83246                  24257903.7854
        40.2504         22.2504
 04  6 30 18 38  0.0000000  0  9G 3G 9G14G15G18G19G21G22G25
  22549818.1474    2654905.73449   2060900.85947                  22549817.1504
        48.0004         33.5004
  23984174.8054    1045035.99249    811688.77746                  23984173.3484
        39.5004         22.5004
  20245860.1024   -4045482.72349  -3142825.96948                  20245856.7954
        50.2504         42.5004
  20440748.1084     584667.35949    453102.07848                  20440746.2904
        52.2504         41.7504
  23302071.6164    4267448.19549   3308757.84447                  23302069.4124
        43.0004         27.7504
  22265969.3724   -4191714.40649  -3254964.43047                  22265965.8204
        48.7504         35.7504
  24054636.2284    6489961.97349   5036346.89846                  24054635.1794
        41.7504         22.2504
  21336005.9684    1223745.96149    946547.35248                  21336001.9884
        50.7504         39.7504
  24246664.8864   -1487318.70349  -1154086.55946                  24246665.8214
        39.7504         21.7504
 04  6 30 18 38 15.0000000  0  9G 3G 9G14G15G18G19G21G22G25
  22554241.3944    2678149.39849   2079012.78547                  22554239.8114
        48.2504         33.7504
  23987540.8254    1062725.31349    825472.64846                  23987539.4954
        40.0004         23.7504
  20243476.2444   -4058009.31649  -3152586.94948                  20243473.4504
        50.5004         42.7504
  20443156.4664     597323.30549    462963.84448                  20443154.3974
        51.2504         42.0004
  23306859.0814    4292606.35949   3328361.57847                  23306856.4454
        42.7504         27.5004
  22263555.2524   -4204401.10549  -3264850.16847                  22263551.5654
        48.0004         35.7504
  24062501.3074    6531294.32049   5068553.87546                  24062500.3634
        40.5004         21.2504
  21337817.8884    1233267.36349    953966.61348                  21337813.8284
        50.2504         39.7504
  24235426.0214   -1546380.68749  -1200108.81246                  24235426.4704
        40.0004         21.7504
 04  6 30 18 38 30.0000000  0  9G 3G 9G14G15G18G19G21G22G25
  22558679.8904    2701473.16849   2097187.12547                  22558678.1844
        48.2504         33.5004
  23990931.0844    1080546.42649    839359.21146                  23990930.7404
        39.2504         22.2504
  20241116.4054   -4070409.56249  -3162249.48048                  20241113.2924
        50.0004         42.7504
  20445586.4314     610093.06649    472914.30148                  20445584.5434
        52.0004         41.5004
  23311649.5924    4317777.23849   3347975.23047                  23311647.0434
        46.0004         28.5004
  22261167.3944   -4216948.64149  -3274627.47747                  22261163.7164
        48.0004         35.2504
  24070375.1164    6572670.61749   5100795.10246                  24070373.6894
        42.2504         22.2504
  21339635.8624    1242820.48849    961410.59847                  21339631.6134
        50.5004         39.0004
  24224185.8614   -1605451.19949  -1246137.70346                  24224186.0994
        40.7504         21.2504
 04  6 30 18 38 45.0000000  0  9G 3G 9G14G15G18G19G21G22G25
  22563133.4534    2724877.15249   2115423.97347                  22563132.1124
        47.5004         32.7504
  23994347.8024    1098499.60249    853348.70346                  23994347.1374
        40.2504         22.2504
  20238780.9754   -4082683.09849  -3171813.27348                  20238778.0854
        50.2504         43.0004
  20448038.1774     622977.09849    482953.79748                  20448036.3254
        52.2504         41.2504
  23316442.0024    4342961.37949   3367599.23847                  23316439.2434
        45.0004         29.7504
  22258806.4334   -4229356.56249  -3284295.99647                  22258802.6494
        48.2504         35.2504
  24078257.8934    6614091.12949   5133070.77346                  24078256.1634
        43.5004         22.7504
  21341459.6594    1252405.83649    968879.69548                  21341455.4364
        50.5004         39.5004
  24212943.2304   -1664529.53549  -1292172.71546                  24212943.5274
        41.5004         22.7504
 04  6 30 18 39  0.0000000  0  9G 3G 9G14G15G18G19G21G22G25
  22567602.4024    2748361.51649   2133723.45347                  22567600.8504
        47.2504         33.2504
  23997789.5944    1116585.18449    867441.32446                  23997788.8944
        38.7504         21.0004
  20236469.3854   -4094829.47349  -3181277.98448                  20236466.6134
        50.2504         43.0004
  20450511.7824     635975.85549    493082.69548                  20450509.8524
        52.7504         42.2504
  23321236.3594    4368159.21949   3387233.89147                  23321234.5694
        44.0004         29.5004
  22256471.6724   -4241624.40249  -3293855.35547                  22256468.4234
        48.5004         35.5004
  24086148.9514    6655556.41049   5165381.32046                  24086146.8464
        43.2504         23.5004
  21343289.9264    1262023.84449    976374.23048                  21343286.0674
        50.0004         39.7504
  24201699.8294   -1723614.83249  -1338213.13746                  24201700.1474
        41.5004         22.0004
 04  6 30 18 39 15.0000000  0  9G 3G 9G14G15G18G19G21G22G25
  22572086.2534    2771925.42649   2152084.92247                  22572085.2504
        46.5004         33.2504
  24001256.3944    1134802.36749    881636.52746                  24001255.2944
        40.5004         22.0004
  20234182.6244   -4106849.30949  -3190644.08248                  20234179.4314
        50.0004         43.0004
  20453007.2104     649088.75449    503300.53148                  20453005.0914
        52.5004         41.7504
  23326033.7814    4393370.05549   3406878.68847                  23326032.2654
        44.7504         30.0004
  22254163.8614   -4253752.77349  -3303306.03547                  22254160.1744
        48.5004         35.7504
  24094047.2774    6697065.42249   5197725.95746                  24094046.4544
        43.5004         23.7504
  21345126.4954    1271673.91449    983893.76648                  21345122.2264
        50.7504         40.0004
  24190455.3394   -1782707.38749  -1384259.24246                  24190454.5374
        41.0004         22.0004
 04  6 30 18 39 30.0000000  0  9G 3G 9G14G15G18G19G21G22G25
  22576585.3604    2795568.03149   2170507.70747                  22576584.3614
        45.7504         33.0004
  24004746.4974    1153150.44549    895933.74246                  24004745.8984
        36.0004         20.5004
  20231919.1214   -4118743.22749  -3199912.08248                  20231915.8864
        50.5004         43.0004
  20455523.9694     662315.16849    513606.82048                  20455521.9804
        52.0004         42.0004
  23330833.4064    4418593.43049   3426533.25047                  23330832.0414
        42.0004         28.5004
  22251882.5834   -4265742.17649  -3312648.43447                  22251878.6214
        48.7504         35.2504
  24101953.7764    6738617.34849   5230104.00446                  24101953.4334
        42.7504         22.7504
  21346968.9954    1281355.47349    991437.82448                  21346964.8914
        50.0004         39.7504
  24179208.7734   -1841807.29349  -1430311.06646                  24179208.5364
        40.0004         21.7504
 04  6 30 18 39 45.0000000  0  9G 3G 9G14G15G18G19G21G22G25
  22581099.5054    2819289.07849   2188991.61347                  22581098.9414
        47.0004         33.5004
  24008263.7554    1171629.27749    910332.81346                  24008262.6474
        37.2504         21.0004
  20229679.5424   -4130511.26249  -3209081.97348                  20229676.6144
        50.5004         42.5004
  20458062.4054     675655.23449    524001.66448                  20458060.4884
        51.5004         41.2504
  23335635.6274    4443829.58649   3446197.75047                  23335634.7514
        44.0004         28.0004
  22249627.6394   -4277592.50449  -3321882.46147                  22249623.3454
        48.5004         36.0004
  24109869.5304    6780212.30949   5262515.61346                  24109868.8724
        42.5004         22.2504
  21348817.0124    1291068.57849    999006.47748                  21348813.0834
        51.0004         39.7504
  24167961.0684   -1900914.14849  -1476368.31246                  24167960.8894
        40.7504         21.7504
 04  6 30 18 40  0.0000000  0  9G 3G 9G14G15G18G19G21G22G25
  22585628.0854    2843089.01249   2207537.00047                  22585627.7474
        46.0004         33.2504
  24011804.0154    1190239.48849    924834.24246                  24011804.5104
        36.2504         21.7504
  20227464.2434   -4142152.64549  -3218153.18448                  20227461.5614
        49.7504         42.5004
  20460622.9014     689109.73849    534485.68848                  20460620.5604
        51.5004         42.0004
  23340441.1254    4469079.11749   3465872.67647                  23340439.4654
        42.7504         28.5004
  22247399.1204   -4289303.04749  -3331007.56247                  22247395.1664
        48.5004         36.0004
  24117793.2874    6821850.89149   5294961.20746                  24117792.5014
        42.7504         21.0004
  21350671.6614    1300814.16849   1006600.43448                  21350667.7734
        50.2504         39.7504
  24156711.7974   -1960026.75049  -1522430.02046                  24156712.6694
        41.2504         21.7504
 04  6 30 18 40 15.0000000  0  9G 3G 9G14G15G18G19G21G22G25
  22590171.9274    2866965.76249   2226142.22747                  22590170.9504
        45.5004         33.2504
  24015371.8864    1208978.98049    939436.39546                  24015370.6534
        38.2504         20.5004
  20225272.5894   -4153669.37149  -3227127.25848                  20225269.5764
        50.0004         42.5004
  20463204.6204     702676.86749    545057.46148                  20463202.5264
        51.2504         42.0004
  23345247.9094    4494340.24249   3485556.64147                  23345245.8144
        43.0004         28.2504
  22245196.8144   -4300875.56249  -3340025.11347                  22245192.9934
        48.7504         36.2504
  24125724.5134    6863531.08249   5327439.25846                  24125723.3544
        42.7504         22.0004
  21352531.9594    1310590.21949   1014218.12548                  21352528.1644
        49.7504         39.5004
  24145461.9374   -2019146.67649  -1568497.41446                  24145462.0534
        41.2504         22.0004
 04  6 30 18 40 30.0000000  0  9G 3G 9G14G15G18G19G21G22G25
  22594731.0424    2890921.07449   2244808.69147                  22594729.3434
        44.5004         32.0004
  24018961.2434    1227849.82449    954140.94946                  24018962.0654
        36.2504         21.0004
  20223105.4234   -4165059.25049  -3236002.48448                  20223102.0324
        50.2504         42.2504
  20465808.0754     716358.85949    555718.74648                  20465806.0444
        52.0004         41.7504
  23350057.2164    4519615.26249   3505251.44947                  23350055.4034
        42.5004         26.2504
  22243021.5954   -4312307.84449  -3348933.39147                  22243017.2794
        49.2504         36.0004
  24133663.7664    6905255.00049   5359951.35546                  24133663.3424
        42.2504         22.2504
  21354398.7104    1320398.96949   1021861.29348                  21354394.7104
        50.2504         39.5004
  24134210.8404   -2078271.12149  -1614568.38746                  24134210.7634
        41.2504         21.7504
 04  6 30 18 40 45.0000000  0  9G 3G 9G14G15G18G19G21G22G25
  22599304.3474    2914955.45349   2263536.74647                  22599303.2574
        47.0004         32.5004
  24022577.6804    1246852.48049    968948.19946                  24022578.2844
        37.2504         21.7504
  20220962.3104   -4176321.58649  -3244778.33248                  20220959.0654
        50.0004         42.5004
  20468433.8304     730156.38349    566470.05148                  20468431.9194
        51.5004         41.7504
  23354870.2224    4544904.98049   3524957.69947                  23354867.9264
        42.0004         27.7504
  22240872.8064   -4323599.22749  -3357731.87147                  22240868.8184
        49.0004         36.0004
  24141613.0054    6947023.25449   5392497.96546                  24141611.8984
        41.7504         21.7504
  21356271.4034    1330241.07049   1029530.45748                  21356267.7394
        50.0004         39.5004
  24122959.0924   -2137399.28949  -1660642.25446                  24122958.6214
        41.0004         22.2504
 04  6 30 18 41  0.0000000  0  9G 3G 9G14G15G18G19G21G22G25
  22603892.6254    2939067.87149   2282325.62547                  22603891.4044
        44.7504         33.0004
  24026218.4304    1265986.24249    983857.60546                  24026218.9484
        36.2504         22.5004
  20218843.1354   -4187457.16849  -3253455.41048                  20218839.7354
        50.2504         42.0004
  20471080.9544     744068.71149    577310.82048                  20471079.0224
        51.5004         41.7504
  23359685.3364    4570208.52749   3544674.73047                  23359682.9564
        44.0004         28.0004
  22238750.4664   -4334750.29349  -3366421.03947                  22238746.8024
        49.0004         35.5004
  24149568.8084    6988834.89849   5425078.40646                  24149568.3304
        41.2504         21.0004
  21358150.6994    1340115.98049   1037225.18048                  21358146.9404
        50.2504         39.5004
  24111706.8284   -2196531.37149  -1706719.14846                  24111706.4254
        41.0004         21.7504
 04  6 30 18 41 15.0000000  0  9G 3G 9G14G15G18G19G21G22G25
  22608495.5474    2963256.96949   2301174.25047                  22608494.2374
        45.0004         31.7504
  24029884.5814    1285249.75849    998868.10946                  24029885.4244
        36.5004         21.5004
  20216747.8274   -4198467.16449  -3262034.62548                  20216745.0204
        50.2504         42.7504
  20473750.2134     758094.77349    588240.21148                  20473748.1924
        52.2504         41.7504
  23364502.7994    4595524.90249   3564401.75847                  23364500.5014
        43.0004         27.0004
  22236655.2084   -4345762.24649  -3375001.77047                  22236651.3664
        48.7504         36.0004
  24157533.6324    7030688.73049   5457691.69146                  24157532.3394
        41.0004         20.0004
  21360035.8574    1350022.56649   1044944.59048                  21360031.9904
        49.0004         40.2504
  24100453.4114   -2255668.09849  -1752799.68046                  24100453.0914
        41.5004         21.7504
 04  6 30 18 41 30.0000000  0  9G 3G 9G14G15G18G19G21G22G25
  22613113.1364    2987522.04749   2320082.08647                  22613111.6894
        45.0004         32.5004
  24033575.7894    1304642.49649   1013979.27746                  24033575.6864
        36.7504         22.2504
  20214676.6134   -4209352.04749  -3270516.34848                  20214673.8504
        49.5004         42.5004
  20476441.0934     772234.19549    599257.93048                  20476438.8394
        52.0004         41.5004
  23369322.5884    4620853.81349   3584138.56347                  23369320.4664
        43.2504         26.5004
  22234586.0244   -4356635.43749  -3383474.39147                  22234582.1734
        48.2504         35.5004
  24165505.8364    7072584.22749   5490337.49646                  24165504.7524
        40.7504         19.2504
  21361926.8384    1359960.49249   1052688.42248                  21361922.8124
        50.2504         40.0004
  24089198.9554   -2314809.48049  -1798883.86746                  24089198.7254
        41.0004         21.5004
 04  6 30 18 41 45.0000000  0  9G 3G 9G14G15G18G19G21G22G25
  22617745.7644    3011865.13749   2339050.70347                  22617744.4724
        43.0004         32.0004
  24037291.6134    1324166.41849   1029192.71546                  24037290.5944
        38.0004         21.0004
  20212629.7324   -4220109.55149  -3278898.82048                  20212626.5994
        49.5004         42.7504
  20479153.6904     786489.28949    610365.78948                  20479151.6194
        52.0004         41.2504
  23374145.4784    4646197.49649   3603886.85947                  23374143.3564
        40.2504         28.2504
  22232543.5554   -4367367.51649  -3391837.05547                  22232539.9334
        48.0004         36.0004
  24173487.6744    7114523.46549   5523017.34446                  24173485.9444
        41.0004         19.2504
  21363824.4214    1369931.91049   1060458.35248                  21363820.1284
        48.7504         40.2504
  24077944.5174   -2373952.93049  -1844969.62146                  24077944.0854
        40.7504         21.2504
 04  6 30 18 42  0.0000000  0  9G 3G 9G14G15G18G19G21G22G25
  22622392.5414    3036284.97349   2358079.12147                  22622391.2114
        44.5004         33.0004
  24041031.4954    1343820.41449   1044507.47746                  24041031.1584
        38.5004         22.7504
  20210606.6884   -4230740.68749  -3287182.82048                  20210603.5644
        50.0004         41.7504
  20481888.2984     800859.08249    621563.02348                  20481886.1034
        51.7504         41.2504
  23378970.9154    4671554.99249   3623645.94147                  23378968.7274
        40.5004         28.5004
  22230528.2204   -4377959.47749  -3400090.53547                  22230524.3014
        48.5004         36.0004
  24181475.4824    7156505.22749   5555730.36346                  24181474.5164
        40.5004         19.5004
  21365727.9824    1379935.94949   1068253.69548                  21365723.9624
        50.5004         40.0004
  24066689.0044   -2433098.72749  -1891057.21946                  24066689.1594
        41.0004         21.7504
 04  6 30 18 42 15.0000000  0  9G 3G 9G14G15G18G19G21G22G25
  22627053.5944    3060780.28549   2377166.35547                  22627053.0304
        45.0004         32.7504
  24044795.0554    1363603.48849   1059922.81346                  24044795.7864
        38.2504         22.7504
  20208607.4724   -4241246.53149  -3295369.19548                  20208604.3574
        50.0004         41.7504
  20484643.9634     815342.58649    632848.87148                  20484642.2804
        51.2504         41.5004
  23383798.2774    4696925.43849   3643415.06347                  23383797.3264
        40.5004         28.5004
  22228539.0004   -4388412.17249  -3408235.50047                  22228535.2704
        48.5004         36.0004
  24189472.6494    7198528.61749   5588475.82846                  24189471.4464
        40.2504         20.0004
  21367637.9564    1389971.67249   1076073.73047                  21367633.5824
        50.7504         39.0004
  24055433.6454   -2492247.59849  -1937147.20346                  24055433.9124
        42.0004         22.2504
 04  6 30 18 42 30.0000000  0  9G 3G 9G14G15G18G19G21G22G25
  22631729.9294    3085352.99249   2396313.89547                  22631728.9134
        45.5004         32.5004
  24048585.3794    1383517.53949   1075440.23846                  24048585.1394
        39.2504         24.2504
  20206632.5394   -4251624.88349  -3303456.22348                  20206629.7044
        50.5004         42.2504
  20487422.2474     829942.03149    644225.04748                  20487420.2224
        52.0004         42.0004
  23388629.2714    4722311.05549   3663196.03947                  23388627.7534
        42.7504         27.2504
  22226577.0234   -4398723.47349  -3416270.28547                  22226573.4244
        48.7504         36.2504
  24197477.6794    7240595.37149   5621255.03946                  24197476.5234
        40.0004         20.0004
  21369553.8514    1400041.23849   1083920.15248                  21369550.1514
        50.7504         39.5004
  24044177.3994   -2551397.00849  -1983237.63746                  24044177.3114
        41.0004         22.2504
 04  6 30 18 42 45.0000000  0  9G 3G 9G14G15G18G19G21G22G25
  22636420.8924    3110003.09849   2415521.75047                  22636420.0354
        42.7504         31.7504
  24052399.8884    1403562.87549   1091059.93846                  24052399.5694
        39.5004         23.7504
  20204682.1144   -4261875.60249  -3311443.79348                  20204678.8774
        50.2504         42.2504
  20490222.6794     844657.80149    655691.86748                  20490220.8414
        52.0004         41.7504
  23393463.1714    4747712.30149   3682989.18847                  23393461.3264
        42.7504         28.0004
  22224641.9044   -4408893.01649  -3424194.60947                  22224637.9944
        48.5004         35.5004
  24205491.2054    7282706.09449   5654068.53146                  24205490.4314
        40.2504         19.5004
  21371477.1584    1410145.04749   1091793.23448                  21371472.2064
        48.5004         39.7504
  24032921.8464   -2610546.10949  -2029327.82046                  24032921.2834
        41.5004         21.7504
 04  6 30 18 43  0.0000000  0  9G 3G 9G14G15G18G19G21G22G25
  22641126.1584    3134728.98849   2434788.66447                  22641125.2474
        46.0004         32.0004
  24056239.3274    1423737.93049   1106780.75446                  24056238.0554
        40.0004         24.0004
  20202755.3204   -4271999.91049  -3319332.86748                  20202752.2724
        50.2504         42.2504
  20493044.7384     859488.59049    667248.31648                  20493042.9974
        52.0004         42.0004
  23398299.9834    4773127.73849   3702793.41847                  23398297.3554
        44.0004         28.0004
  22222733.2514   -4418922.08649  -3432009.46947                  22222729.3154
        48.5004         36.0004
  24213513.1074    7324859.26649   5686915.09446                  24213511.9094
        40.5004         19.0004
  21373405.7814    1420281.79749   1099692.00048                  21373401.6134
        50.7504         39.5004
  24021666.1694   -2669695.89849  -2075418.50846                  24021665.6224
        41.0004         21.7504
 04  6 30 18 43 15.0000000  0  9G 3G 9G14G15G18G19G21G22G25
  22645845.1064    3159529.37549   2454113.60947                  22645844.5544
        45.7504         33.0004
  24060102.0064    1444041.50349   1122601.66046                  24060102.5284
        39.2504         24.5004
  20200852.2054   -4281998.86349  -3327124.25848                  20200849.2164
        49.5004         42.5004
  20495888.9494     874433.33649    678893.56348                  20495886.7174
        51.5004         42.0004
  23403139.3464    4798556.57449   3722608.07447                  23403136.4664
        44.7504         26.7504
  22220851.0964   -4428811.75449  -3439715.71147                  22220847.5764
        48.2504         35.7504
  24221542.3184    7367053.66049   5719793.82046                  24221541.4874
        41.0004         20.5004
  21375340.6804    1430450.41449   1107615.59448                  21375336.7564
        50.0004         39.7504
  24010410.2394   -2728846.98049  -2121510.23846                  24010409.3464
        40.5004         22.7504
 04  6 30 18 43 30.0000000  0  9G 3G 9G14G15G18G19G21G22G25
  22650579.1494    3184404.51649   2473496.80547                  22650578.0934
        47.2504         33.0004
  24063991.8264    1464473.85949   1138522.98846                  24063990.5304
        40.0004         24.2504
  20198973.6114   -4291871.93749  -3334817.55948                  20198970.2994
        50.0004         42.7504
  20498754.5404     889492.51249    690627.98048                  20498752.6124
        52.2504         41.5004
  23407980.3214    4823999.24249   3742433.52347                  23407977.8314
        41.2504         27.5004
  22218996.1734   -4438561.51649  -3447312.93447                  22218992.2734
        48.5004         36.2504
  24229579.9714    7409289.82849   5752705.00846                  24229578.2054
        41.0004         19.0004
  21377281.8774    1440651.45749   1115564.44947                  21377277.6444
        50.5004         39.2504
  23999154.0524   -2787998.43749  -2167602.27346                  23999153.6354
        42.2504         22.2504
 04  6 30 18 43 45.0000000  0  9G 3G 9G14G15G18G19G21G22G25
  22655326.3224    3209353.97349   2492937.93447                  22655325.7694
        47.5004         33.0004
  24067904.2574    1485034.83649   1154544.51646                  24067903.3694
        41.0004         23.0004
  20197118.9594   -4301619.39849  -3342412.98448                  20197115.8224
        50.2504         42.7504
  20501642.0604     904666.16849    702451.60548                  20501640.0774
        52.0004         41.0004
  23412824.8034    4849455.69949   3762269.71547                  23412822.0894
        44.0004         26.0004
  22217167.5794   -4448171.37149  -3454801.13747                  22217163.8464
        48.5004         36.2504
  24237624.7414    7451567.44949   5785648.57446                  24237623.6014
        40.0004         19.0004
  21379229.3074    1450884.96149   1123538.60248                  21379225.1994
        50.7504         39.5004
  23987897.7464   -2847150.06649  -2213694.43046                  23987897.0734
        41.0004         22.2504
 04  6 30 18 44  0.0000000  0  9G 3G 9G14G15G18G19G21G22G25
  22660088.9534    3234378.38749   2512437.44547                  22660087.6214
        47.0004         32.2504
  24071841.4684    1505725.14849   1170666.80547                  24071840.8334
        40.5004         26.7504
  20195287.9064   -4311240.38349  -3349909.85248                  20195284.7124
        50.2504         42.2504
  20504551.6434     919955.18849    714365.11748                  20504549.4834
        51.2504         41.2504
  23417671.4754    4874926.89549   3782117.39847                  23417669.0444
        44.0004         26.7504
  22215365.5474   -4457640.48049  -3462179.66847                  22215361.3374
        48.5004         36.0004
  24245678.2684    7493887.09449   5818624.85546                  24245677.1584
        39.7504         19.2504
  21381183.0204    1461151.75449   1131538.69548                  21381179.3034
        50.7504         40.0004
  23976641.5694   -2906300.53549  -2259785.69146                  23976641.6514
        39.0004         22.5004
 04  6 30 18 44 15.0000000  0 10G 3G 9G14G15G18G19G21G22G25G11
  22664864.3544    3259475.65249   2531993.73847                  22664863.5244
        46.7504         32.2504
  24075802.5134    1526542.75049   1186888.33646                  24075801.0734
        40.5004         24.0004
  20193481.3194   -4320736.75049  -3357309.61748                  20193478.0114
        50.0004         42.5004
  20507482.3594     935357.71149    726367.07448                  20507480.2084
        51.7504         41.0004
  23422520.7744    4900411.19149   3801975.28147                  23422518.2414
        42.7504         26.5004
  22213589.8964   -4466970.57449  -3469449.87547                  22213586.4844
        48.7504         35.7504
  24253739.5214    7536246.96949   5851632.46146                  24253738.3014
        41.0004         19.2504
  21383142.9374    1471450.16049   1139563.43048                  21383138.2604
        50.5004         40.0004
  23965385.9994   -2965451.21149  -2305877.07446                  23965385.8224
        40.5004         22.2504
  24600612.8974     -15037.23859
        38.5004
 04  6 30 18 44 30.0000000  0 10G 3G 9G14G15G18G19G21G22G25G11
  22669654.3614    3284646.27049   2551607.18847                  22669653.4834
        47.2504         32.7504
  24079788.5174    1547488.35549   1203209.55947                  24079787.6434
        41.7504         26.2504
  20191697.6114   -4330107.81249  -3364611.74248                  20191694.5894
        50.0004         42.0004
  20510435.0394     950874.59849    738458.14848                  20510433.3114
        52.0004         41.5004
  23427373.0464    4925909.33249   3821843.93046                  23427370.9374
        42.5004         24.5004
  22211841.4544   -4476160.86349  -3476611.14847                  22211837.4504
        48.5004         36.2504
  24261807.5614    7578647.67649   5884671.88346                  24261806.5334
        40.5004         19.5004
  21385108.7494    1481780.92649   1147613.36748                  21385104.2484
        50.5004         39.5004
  23954129.9184   -3024600.93449  -2351967.71546                  23954129.4164
        39.0004         22.2504
  24589319.7204     -74382.69949    -54844.70356                  24589317.8434
        36.0004         19.2504
 04  6 30 18 44 45.0000000  0 10G 3G 9G14G15G18G19G21G22G25G11
  22674457.9764    3309889.41849   2571277.14147                  22674457.2174
        47.2504         32.0004
  24083797.9494    1568561.17649   1219629.92246                  24083797.0784
        39.5004         23.0004
  20189938.2174   -4339354.23449  -3371816.74648                  20189935.0804
        50.5004         42.2504
  20513409.6594     966505.25849    750637.87948                  20513407.6274
        51.5004         41.5004
  23432227.3494    4951420.86749   3841723.02347                  23432226.0114
        42.7504         26.0004
  22210118.8154   -4485211.93449  -3483663.92647                  22210115.3444
        49.0004         36.0004
  24269883.5534    7621088.40649   5917742.53546                  24269882.2394
        39.5004         19.2504
  21387080.2714    1492143.53549   1155688.12548                  21387076.1094
        50.5004         39.5004
  23942874.1144   -3083749.75449  -2398057.69146                  23942873.1534
        40.2504         22.0004
  24578025.8554    -133713.55948   -101076.35946                  24578027.1884
        33.0004         17.0004
 04  6 30 18 45  0.0000000  0 10G 3G 9G14G15G18G19G21G22G25G11
  22679275.5064    3335206.40649   2591004.64847                  22679274.3114
        46.0004         32.2504
  24087832.7194    1589762.57849   1236150.50046                  24087832.3484
        40.0004         24.2504
  20188202.3584   -4348474.32449  -3378923.30948                  20188199.6344
        49.5004         41.7504
  20516406.0164     982251.30949    762907.51248                  20516404.1824
        52.0004         41.2504
  23437086.0454    4976947.52049   3861613.89147                  23437083.7694
        42.0004         27.5004
  22208423.1584   -4494122.14549  -3490606.95347                  22208419.3984
        49.0004         36.2504
  24277968.1634    7663570.81349   5950845.63746                  24277966.8264
        41.0004         21.0004
  21389058.8284    1502539.64849   1163788.98048                  21389054.7744
        50.7504         40.0004
  23931618.0474   -3142895.68749  -2444145.37146                  23931618.4634
        39.5004         22.0004
  24566739.9294    -193027.60558   -147295.09456                  24566740.0574
        33.0004         18.2504
 04  6 30 18 45 15.0000000  0 10G 3G 9G14G15G18G19G21G22G25G11
  22684106.2364    3360590.98049   2610784.80547                  22684105.3384
        46.5004         32.0004
  24091890.0134    1611086.50049   1252766.50446                  24091890.0704
        39.2504         23.2504
  20186490.0444   -4357474.05149  -3385936.09048                  20186487.0764
        50.0004         42.0004
  20519423.4104     998106.85949    775262.47348                  20519421.4184
        51.2504         41.7504
  23441944.9804    5002483.34049   3881511.89147                  23441942.7264
        42.5004         28.5004
  22206753.2154   -4502897.43749  -3497444.85247                  22206749.4814
        47.7504         36.0004
  24286058.8534    7706088.82049   5983976.48046                  24286058.1254
        41.7504         21.2504
  21391042.5004    1512963.32049   1171911.31648                  21391038.1684
        50.7504         39.7504
  23920363.1904   -3202044.45349  -2490235.27746                  23920362.3924
        40.0004         23.2504
  24555457.7814    -252330.66449   -193505.13746                  24555454.6904
        41.2504         20.0004
